| time (UTC) | temp F | wind direction | speed MPH | gust MPH | rain 1hr in | rain 24hr in | rain mn in | humidity % | barometer mb |
| 20260505140603 | 61 | 354 | 3.0 | 8.0 | 0.00 | 0.35 | 0.31 | 75 | 1016.9 |
| 20260505140503 | 62 | 351 | 3.0 | 8.0 | 0.00 | 0.35 | 0.31 | 75 | 1016.8 |
| 20260505140403 | 62 | 349 | 3.0 | 8.0 | 0.00 | 0.35 | 0.31 | 76 | 1016.9 |
| 20260505140303 | 62 | 349 | 3.0 | 8.0 | 0.00 | 0.35 | 0.31 | 76 | 1016.9 |
| 20260505140203 | 62 | 345 | 3.0 | 7.0 | 0.00 | 0.35 | 0.31 | 77 | 1016.8 |
| 20260505130303 | 59 | 349 | 3.0 | 8.0 | 0.00 | 0.37 | 0.31 | 82 | 1016.7 |
| 20260505130203 | 59 | 352 | 3.0 | 8.0 | 0.00 | 0.37 | 0.31 | 80 | 1016.7 |
| 20260505130124 | 59 | 352 | 3.0 | 8.0 | 0.00 | 0.37 | 0.31 | 80 | 1016.7 |
| 20260505125024 | 57 | 338 | 2.0 | 4.0 | 0.00 | 0.37 | 0.31 | 88 | 1016.4 |
| 20260505124903 | 57 | 336 | 2.0 | 4.0 | 0.00 | 0.37 | 0.31 | 88 | 1016.8 |
| 20260505124803 | 57 | 334 | 2.0 | 4.0 | 0.00 | 0.38 | 0.31 | 88 | 1016.5 |
| 20260505124703 | 57 | 334 | 2.0 | 4.0 | 0.00 | 0.38 | 0.31 | 88 | 1016.8 |
| 20260505124603 | 57 | 327 | 2.0 | 4.0 | 0.00 | 0.38 | 0.31 | 88 | 1016.6 |
| 20260505124503 | 57 | 322 | 2.0 | 4.0 | 0.00 | 0.38 | 0.31 | 89 | 1016.6 |
| 20260505124403 | 57 | 321 | 2.0 | 4.0 | 0.00 | 0.38 | 0.31 | 89 | 1016.5 |
| 20260505124303 | 57 | 326 | 2.0 | 4.0 | 0.00 | 0.38 | 0.31 | 89 | 1016.6 |
| 20260505124203 | 57 | 322 | 2.0 | 4.0 | 0.00 | 0.38 | 0.31 | 89 | 1016.8 |
| 20260505124103 | 57 | 323 | 2.0 | 4.0 | 0.00 | 0.38 | 0.31 | 89 | 1016.6 |
| 20260505124003 | 57 | 323 | 2.0 | 4.0 | 0.00 | 0.38 | 0.31 | 89 | 1016.6 |
| 20260505123903 | 57 | 319 | 2.0 | 4.0 | 0.00 | 0.38 | 0.31 | 89 | 1016.5 |
| 20260505123803 | 57 | 324 | 2.0 | 7.0 | 0.00 | 0.38 | 0.31 | 89 | 1016.7 |
| 20260505123703 | 57 | 316 | 3.0 | 8.0 | 0.00 | 0.38 | 0.31 | 89 | 1016.7 |
| 20260505123624 | 57 | 298 | 3.0 | 9.0 | 0.00 | 0.38 | 0.31 | 88 | 1016.5 |
| 20260505123503 | 57 | 292 | 3.0 | 9.0 | 0.00 | 0.38 | 0.31 | 88 | 1016.5 |
| 20260505123403 | 57 | 296 | 3.0 | 9.0 | 0.00 | 0.38 | 0.31 | 87 | 1016.7 |
| 20260505123303 | 56 | 303 | 4.0 | 9.0 | 0.00 | 0.38 | 0.31 | 87 | 1016.8 |
| 20260505123203 | 57 | 306 | 4.0 | 9.0 | 0.00 | 0.38 | 0.31 | 86 | 1016.6 |
| 20260505123103 | 57 | 307 | 4.0 | 9.0 | 0.00 | 0.38 | 0.31 | 84 | 1016.7 |
| 20260505123003 | 58 | 313 | 4.0 | 9.0 | 0.00 | 0.38 | 0.31 | 84 | 1016.4 |
| 20260505122903 | 59 | 319 | 4.0 | 9.0 | 0.00 | 0.38 | 0.31 | 83 | 1016.8 |
| 20260505122803 | 59 | 319 | 4.0 | 9.0 | 0.00 | 0.38 | 0.31 | 83 | 1016.8 |
| 20260505122703 | 60 | 315 | 4.0 | 9.0 | 0.00 | 0.38 | 0.31 | 82 | 1016.5 |
| 20260505122602 | 60 | 322 | 4.0 | 9.0 | 0.00 | 0.38 | 0.31 | 80 | 1016.7 |
| 20260505122503 | 60 | 338 | 3.0 | 8.0 | 0.00 | 0.38 | 0.31 | 80 | 1016.6 |
| 20260505122403 | 60 | 350 | 4.0 | 8.0 | 0.00 | 0.38 | 0.31 | 80 | 1016.6 |
| 20260505122305 | 60 | 351 | 4.0 | 8.0 | 0.00 | 0.38 | 0.31 | 80 | 1016.6 |
| 20260505122202 | 60 | 354 | 3.0 | 8.0 | 0.00 | 0.38 | 0.31 | 81 | 1016.6 |
| 20260505122103 | 60 | 353 | 3.0 | 8.0 | 0.00 | 0.38 | 0.31 | 81 | 1016.6 |
| 20260505122003 | 59 | 353 | 3.0 | 8.0 | 0.00 | 0.38 | 0.31 | 82 | 1016.6 |
| 20260505121923 | 59 | 353 | 3.0 | 8.0 | 0.00 | 0.38 | 0.31 | 82 | 1016.6 |
| 20260505121824 | 60 | 353 | 3.0 | 8.0 | 0.00 | 0.38 | 0.31 | 80 | 1016.5 |
| 20260505121702 | 60 | 357 | 3.0 | 8.0 | 0.00 | 0.38 | 0.31 | 80 | 1016.8 |
| 20260505121602 | 61 | 356 | 3.0 | 8.0 | 0.00 | 0.38 | 0.31 | 78 | 1016.8 |
| 20260505121502 | 61 | 356 | 3.0 | 8.0 | 0.00 | 0.38 | 0.31 | 78 | 1016.8 |
| 20260505121402 | 62 | 356 | 3.0 | 8.0 | 0.00 | 0.38 | 0.31 | 77 | 1016.5 |
| 20260505121303 | 63 | 340 | 2.0 | 8.0 | 0.00 | 0.38 | 0.31 | 77 | 1016.6 |
| 20260505121202 | 63 | 334 | 3.0 | 8.0 | 0.00 | 0.38 | 0.31 | 79 | 1016.7 |
| 20260505121102 | 62 | 325 | 3.0 | 8.0 | 0.00 | 0.38 | 0.31 | 79 | 1016.8 |
| 20260505121023 | 62 | 326 | 3.0 | 8.0 | 0.00 | 0.38 | 0.31 | 78 | 1016.6 |
| 20260505120903 | 62 | 326 | 3.0 | 8.0 | 0.00 | 0.38 | 0.31 | 77 | 1016.5 |
| 20260505120802 | 62 | 320 | 3.0 | 8.0 | 0.00 | 0.38 | 0.31 | 76 | 1016.7 |
| 20260505120702 | 63 | 320 | 3.0 | 8.0 | 0.00 | 0.39 | 0.31 | 78 | 1016.5 |
| 20260505120623 | 62 | 318 | 3.0 | 8.0 | 0.00 | 0.39 | 0.31 | 79 | 1016.5 |
| 20260505120524 | 62 | 316 | 3.0 | 8.0 | 0.00 | 0.39 | 0.31 | 79 | 1016.6 |
| 20260505120403 | 62 | 317 | 3.0 | 8.0 | 0.00 | 0.39 | 0.31 | 77 | 1016.8 |
| 20260505120303 | 62 | 330 | 3.0 | 8.0 | 0.00 | 0.39 | 0.31 | 77 | 1016.6 |
| 20260505120203 | 62 | 335 | 3.0 | 7.0 | 0.00 | 0.39 | 0.31 | 78 | 1016.6 |
| 20260505120123 | 62 | 335 | 3.0 | 7.0 | 0.00 | 0.40 | 0.31 | 78 | 1016.6 |
| 20260505120003 | 62 | 347 | 2.0 | 7.0 | 0.00 | 0.40 | 0.31 | 79 | 1016.7 |
| 20260505115903 | 62 | 347 | 2.0 | 7.0 | 0.00 | 0.40 | 0.31 | 79 | 1016.7 |
| 20260505115802 | 62 | 348 | 3.0 | 7.0 | 0.00 | 0.40 | 0.31 | 79 | 1016.7 |
| 20260505115703 | 62 | 357 | 2.0 | 7.0 | 0.00 | 0.40 | 0.31 | 80 | 1016.7 |
| 20260505115603 | 61 | 353 | 2.0 | 7.0 | 0.00 | 0.40 | 0.31 | 79 | 1016.6 |
| 20260505115502 | 61 | 355 | 2.0 | 7.0 | 0.00 | 0.40 | 0.31 | 80 | 1016.6 |
| 20260505115403 | 61 | 360 | 2.0 | 7.0 | 0.00 | 0.40 | 0.31 | 82 | 1016.7 |
| 20260505115304 | 61 | 359 | 2.0 | 7.0 | 0.00 | 0.40 | 0.31 | 82 | 1016.7 |
| 20260505115202 | 60 | 355 | 2.0 | 4.0 | 0.00 | 0.40 | 0.31 | 83 | 1016.7 |
| 20260505115102 | 60 | 355 | 2.0 | 4.0 | 0.00 | 0.40 | 0.31 | 83 | 1016.6 |
| 20260505115003 | 60 | 355 | 2.0 | 4.0 | 0.00 | 0.40 | 0.31 | 84 | 1016.7 |
| 20260505114902 | 59 | 354 | 3.0 | 4.0 | 0.00 | 0.40 | 0.31 | 84 | 1016.8 |
| 20260505114803 | 58 | 353 | 3.0 | 6.0 | 0.00 | 0.40 | 0.31 | 84 | 1016.7 |
| 20260505114703 | 57 | 355 | 3.0 | 6.0 | 0.00 | 0.40 | 0.31 | 84 | 1016.7 |
| 20260505114624 | 57 | 355 | 3.0 | 6.0 | 0.00 | 0.40 | 0.31 | 84 | 1016.7 |
| 20260505114503 | 57 | 353 | 4.0 | 9.0 | 0.00 | 0.40 | 0.31 | 84 | 1016.7 |
| 20260505114403 | 57 | 353 | 4.0 | 9.0 | 0.00 | 0.40 | 0.31 | 84 | 1016.7 |
| 20260505114302 | 57 | 355 | 4.0 | 9.0 | 0.00 | 0.40 | 0.31 | 84 | 1016.7 |
| 20260505114224 | 57 | 356 | 4.0 | 9.0 | 0.00 | 0.40 | 0.31 | 84 | 1016.7 |
| 20260505114103 | 57 | 351 | 4.0 | 9.0 | 0.00 | 0.40 | 0.31 | 85 | 1016.6 |
| 20260505114002 | 57 | 350 | 4.0 | 9.0 | 0.00 | 0.41 | 0.31 | 84 | 1016.8 |
| 20260505113902 | 57 | 349 | 3.0 | 9.0 | 0.00 | 0.41 | 0.31 | 83 | 1016.7 |
| 20260505113803 | 57 | 349 | 3.0 | 9.0 | 0.00 | 0.41 | 0.31 | 83 | 1016.7 |
| 20260505113702 | 57 | 350 | 3.0 | 9.0 | 0.00 | 0.41 | 0.31 | 83 | 1016.7 |
| 20260505113623 | 57 | 349 | 3.0 | 9.0 | 0.00 | 0.41 | 0.31 | 82 | 1016.8 |
| 20260505113502 | 58 | 353 | 3.0 | 7.0 | 0.00 | 0.41 | 0.31 | 83 | 1016.6 |
| 20260505113403 | 58 | 349 | 2.0 | 7.0 | 0.00 | 0.41 | 0.31 | 84 | 1016.7 |
| 20260505113303 | 58 | 348 | 2.0 | 7.0 | 0.00 | 0.41 | 0.31 | 84 | 1016.6 |
| 20260505113202 | 58 | 344 | 2.0 | 7.0 | 0.00 | 0.41 | 0.31 | 84 | 1016.7 |
| 20260505113103 | 58 | 351 | 2.0 | 4.0 | 0.00 | 0.41 | 0.31 | 85 | 1016.8 |
| 20260505113003 | 58 | 345 | 2.0 | 4.0 | 0.00 | 0.41 | 0.31 | 85 | 1016.6 |
| 20260505112902 | 58 | 343 | 2.0 | 4.0 | 0.00 | 0.42 | 0.31 | 85 | 1016.7 |
| 20260505112802 | 59 | 342 | 1.0 | 4.0 | 0.00 | 0.42 | 0.31 | 84 | 1016.6 |
| 20260505112702 | 59 | 342 | 1.0 | 4.0 | 0.00 | 0.42 | 0.31 | 84 | 1016.6 |
| 20260505112603 | 59 | 340 | 1.0 | 4.0 | 0.00 | 0.43 | 0.31 | 84 | 1016.6 |
| 20260505112503 | 59 | 333 | 1.0 | 4.0 | 0.00 | 0.43 | 0.31 | 83 | 1016.8 |
| 20260505112402 | 59 | 335 | 2.0 | 4.0 | 0.00 | 0.44 | 0.31 | 83 | 1016.6 |
| 20260505112324 | 59 | 333 | 2.0 | 4.0 | 0.00 | 0.44 | 0.31 | 82 | 1016.7 |
| 20260505112202 | 58 | 330 | 2.0 | 4.0 | 0.00 | 0.44 | 0.31 | 82 | 1016.6 |
| 20260505112103 | 58 | 332 | 2.0 | 4.0 | 0.00 | 0.44 | 0.31 | 82 | 1016.5 |
| 20260505112002 | 59 | 336 | 2.0 | 4.0 | 0.01 | 0.44 | 0.31 | 83 | 1016.7 |
| 20260505111903 | 59 | 339 | 2.0 | 4.0 | 0.01 | 0.44 | 0.31 | 83 | 1016.6 |
| 20260505111803 | 58 | 340 | 2.0 | 4.0 | 0.02 | 0.44 | 0.31 | 84 | 1016.6 |
| 20260505111724 | 58 | 333 | 2.0 | 4.0 | 0.02 | 0.44 | 0.31 | 83 | 1016.5 |
| 20260505111623 | 58 | 337 | 2.0 | 4.0 | 0.03 | 0.44 | 0.31 | 83 | 1016.5 |
| 20260505111503 | 58 | 342 | 2.0 | 6.0 | 0.03 | 0.44 | 0.31 | 83 | 1016.5 |
| 20260505111403 | 59 | 342 | 2.0 | 6.0 | 0.03 | 0.44 | 0.31 | 83 | 1016.7 |
| 20260505111303 | 59 | 339 | 3.0 | 6.0 | 0.03 | 0.44 | 0.31 | 83 | 1016.7 |
| 20260505111203 | 60 | 330 | 3.0 | 8.0 | 0.03 | 0.44 | 0.31 | 84 | 1016.5 |
| 20260505111103 | 60 | 322 | 3.0 | 9.0 | 0.03 | 0.44 | 0.31 | 85 | 1016.4 |
| 20260505111003 | 60 | 320 | 3.0 | 9.0 | 0.03 | 0.44 | 0.31 | 85 | 1016.6 |
| 20260505110903 | 59 | 322 | 3.0 | 9.0 | 0.03 | 0.44 | 0.31 | 85 | 1016.7 |
| 20260505110803 | 59 | 322 | 3.0 | 9.0 | 0.03 | 0.44 | 0.31 | 85 | 1016.7 |
| 20260505110704 | 59 | 324 | 3.0 | 9.0 | 0.03 | 0.44 | 0.31 | 85 | 1016.5 |
| 20260505110605 | 59 | 332 | 4.0 | 9.0 | 0.03 | 0.44 | 0.31 | 85 | 1016.5 |
| 20260505110524 | 59 | 330 | 4.0 | 9.0 | 0.03 | 0.44 | 0.31 | 84 | 1016.5 |
| 20260505110404 | 60 | 327 | 3.0 | 9.0 | 0.03 | 0.44 | 0.31 | 84 | 1016.5 |
| 20260505110325 | 60 | 319 | 3.0 | 9.0 | 0.03 | 0.44 | 0.31 | 83 | 1016.6 |
| 20260505110206 | 60 | 320 | 3.0 | 9.0 | 0.03 | 0.44 | 0.31 | 83 | 1016.5 |
| 20260505102203 | 56 | 353 | 2.0 | 4.0 | 0.04 | 0.44 | 0.31 | 91 | 1016.6 |
| 20260505102103 | 57 | 353 | 2.0 | 4.0 | 0.04 | 0.44 | 0.31 | 91 | 1016.7 |
| 20260505102003 | 57 | 1 | 2.0 | 4.0 | 0.04 | 0.43 | 0.30 | 92 | 1016.5 |
| 20260505101924 | 57 | 1 | 2.0 | 4.0 | 0.04 | 0.43 | 0.30 | 92 | 1016.5 |
| 20260505101824 | 57 | 2 | 2.0 | 4.0 | 0.03 | 0.42 | 0.30 | 92 | 1016.7 |
| 20260505101703 | 59 | 4 | 2.0 | 4.0 | 0.03 | 0.42 | 0.29 | 93 | 1016.7 |
| 20260505101603 | 59 | 7 | 2.0 | 4.0 | 0.02 | 0.41 | 0.28 | 94 | 1016.6 |
| 20260505101503 | 59 | 7 | 2.0 | 4.0 | 0.02 | 0.41 | 0.28 | 94 | 1016.6 |
| 20260505101403 | 59 | 6 | 2.0 | 4.0 | 0.02 | 0.41 | 0.28 | 94 | 1016.6 |
| 20260505101303 | 59 | 8 | 2.0 | 4.0 | 0.03 | 0.41 | 0.28 | 95 | 1016.5 |
| 20260505101224 | 58 | 7 | 2.0 | 4.0 | 0.03 | 0.41 | 0.28 | 95 | 1016.5 |
| 20260505101103 | 58 | 7 | 2.0 | 4.0 | 0.03 | 0.41 | 0.28 | 96 | 1016.7 |
| 20260505101003 | 58 | 5 | 3.0 | 4.0 | 0.03 | 0.41 | 0.28 | 95 | 1016.6 |
| 20260505100903 | 58 | 2 | 3.0 | 7.0 | 0.04 | 0.41 | 0.28 | 95 | 1016.5 |
| 20260505100803 | 58 | 360 | 3.0 | 7.0 | 0.05 | 0.41 | 0.28 | 96 | 1016.5 |
| 20260505100703 | 58 | 359 | 3.0 | 7.0 | 0.05 | 0.41 | 0.28 | 96 | 1016.5 |
| 20260505100603 | 58 | 360 | 3.0 | 7.0 | 0.06 | 0.41 | 0.28 | 96 | 1016.4 |
| 20260505100524 | 58 | 359 | 3.0 | 7.0 | 0.06 | 0.41 | 0.28 | 95 | 1016.6 |
| 20260505100424 | 58 | 359 | 2.0 | 7.0 | 0.06 | 0.41 | 0.28 | 96 | 1016.2 |
| 20260505100303 | 56 | 354 | 2.0 | 7.0 | 0.06 | 0.41 | 0.28 | 96 | 1016.4 |
| 20260505100203 | 56 | 353 | 2.0 | 7.0 | 0.06 | 0.41 | 0.28 | 95 | 1016.3 |
| 20260505100003 | 56 | 349 | 2.0 | 7.0 | 0.06 | 0.41 | 0.28 | 95 | 1016.5 |
| 20260505095924 | 56 | 349 | 2.0 | 7.0 | 0.06 | 0.41 | 0.28 | 95 | 1016.5 |
| 20260505095824 | 56 | 348 | 1.0 | 7.0 | 0.06 | 0.41 | 0.28 | 95 | 1016.5 |
| 20260505095703 | 56 | 335 | 1.0 | 3.0 | 0.06 | 0.41 | 0.28 | 95 | 1016.5 |
| 20260505095624 | 56 | 335 | 1.0 | 3.0 | 0.06 | 0.41 | 0.28 | 95 | 1016.5 |
| 20260505095503 | 56 | 334 | 1.0 | 3.0 | 0.06 | 0.41 | 0.28 | 95 | 1016.4 |
| 20260505095403 | 56 | 330 | 1.0 | 3.0 | 0.06 | 0.41 | 0.28 | 95 | 1016.4 |
| 20260505095304 | 56 | 331 | 1.0 | 3.0 | 0.06 | 0.41 | 0.28 | 95 | 1016.5 |
| 20260505095203 | 56 | 327 | 2.0 | 3.0 | 0.06 | 0.41 | 0.28 | 96 | 1016.5 |
| 20260505095103 | 56 | 331 | 2.0 | 3.0 | 0.06 | 0.41 | 0.28 | 96 | 1016.4 |
| 20260505095003 | 56 | 335 | 2.0 | 3.0 | 0.06 | 0.41 | 0.28 | 96 | 1016.4 |
| 20260505094903 | 56 | 346 | 2.0 | 3.0 | 0.06 | 0.41 | 0.28 | 96 | 1016.4 |
| 20260505094824 | 56 | 349 | 2.0 | 3.0 | 0.06 | 0.41 | 0.28 | 97 | 1016.4 |
| 20260505094703 | 56 | 8 | 2.0 | 3.0 | 0.06 | 0.41 | 0.28 | 97 | 1016.4 |
| 20260505094603 | 56 | 13 | 2.0 | 3.0 | 0.06 | 0.41 | 0.28 | 97 | 1016.3 |
| 20260505094503 | 56 | 25 | 2.0 | 3.0 | 0.06 | 0.41 | 0.28 | 97 | 1016.3 |
| 20260505094403 | 56 | 39 | 2.0 | 3.0 | 0.06 | 0.41 | 0.28 | 97 | 1016.4 |
| 20260505094303 | 57 | 45 | 2.0 | 3.0 | 0.06 | 0.41 | 0.28 | 97 | 1016.4 |
| 20260505094203 | 57 | 55 | 1.0 | 3.0 | 0.06 | 0.41 | 0.28 | 98 | 1016.5 |
| 20260505094103 | 56 | 59 | 1.0 | 3.0 | 0.06 | 0.41 | 0.28 | 98 | 1016.3 |
| 20260505094003 | 56 | 60 | 1.0 | 3.0 | 0.06 | 0.41 | 0.28 | 98 | 1016.3 |
| 20260505093903 | 56 | 59 | 1.0 | 3.0 | 0.06 | 0.41 | 0.28 | 98 | 1016.3 |
| 20260505093803 | 56 | 61 | 1.0 | 3.0 | 0.06 | 0.41 | 0.28 | 98 | 1016.3 |
| 20260505093703 | 56 | 53 | 1.0 | 2.0 | 0.06 | 0.41 | 0.28 | 98 | 1016.3 |
| 20260505093603 | 56 | 53 | 1.0 | 2.0 | 0.06 | 0.41 | 0.28 | 98 | 1016.3 |
| 20260505093503 | 55 | 55 | 1.0 | 2.0 | 0.06 | 0.41 | 0.28 | 99 | 1016.4 |
| 20260505093403 | 55 | 46 | 0.0 | 2.0 | 0.06 | 0.41 | 0.28 | 98 | 1016.4 |
| 20260505093324 | 54 | 42 | 0.0 | 2.0 | 0.06 | 0.41 | 0.28 | 98 | 1016.6 |
| 20260505093203 | 54 | 41 | 0.0 | 1.0 | 0.06 | 0.41 | 0.28 | 98 | 1016.5 |
| 20260505093103 | 54 | 42 | 0.0 | 1.0 | 0.06 | 0.41 | 0.28 | 98 | 1016.4 |
| 20260505093003 | 54 | 47 | 0.0 | 1.0 | 0.06 | 0.41 | 0.28 | 98 | 1016.4 |
| 20260505092903 | 54 | 47 | 0.0 | 1.0 | 0.06 | 0.41 | 0.28 | 98 | 1016.5 |
| 20260505092803 | 54 | 47 | 0.0 | 1.0 | 0.06 | 0.41 | 0.28 | 98 | 1016.5 |
| 20260505092703 | 54 | 45 | 0.0 | 1.0 | 0.06 | 0.41 | 0.28 | 98 | 1016.5 |
| 20260505092603 | 54 | 45 | 0.0 | 1.0 | 0.06 | 0.41 | 0.28 | 98 | 1016.4 |
| 20260505092524 | 54 | 45 | 0.0 | 1.0 | 0.06 | 0.41 | 0.28 | 98 | 1016.4 |
| 20260505092403 | 54 | 45 | 0.0 | 1.0 | 0.06 | 0.41 | 0.28 | 98 | 1016.5 |
| 20260505092305 | 54 | 45 | 0.0 | 1.0 | 0.06 | 0.41 | 0.28 | 98 | 1016.5 |
| 20260505092203 | 54 | 45 | 0.0 | 1.0 | 0.05 | 0.40 | 0.27 | 98 | 1016.4 |
| 20260505092103 | 54 | 45 | 0.0 | 1.0 | 0.05 | 0.40 | 0.27 | 98 | 1016.4 |
| 20260505092003 | 54 | 42 | 0.0 | 2.0 | 0.04 | 0.39 | 0.26 | 99 | 1016.4 |
| 20260505091903 | 54 | 42 | 0.0 | 2.0 | 0.04 | 0.39 | 0.26 | 99 | 1016.4 |
| 20260505091803 | 54 | 42 | 0.0 | 2.0 | 0.04 | 0.39 | 0.26 | 99 | 1016.4 |
| 20260505091703 | 54 | 44 | 0.0 | 2.0 | 0.04 | 0.39 | 0.26 | 99 | 1016.3 |
| 20260505091603 | 55 | 56 | 1.0 | 3.0 | 0.04 | 0.39 | 0.26 | 99 | 1016.4 |
| 20260505091503 | 55 | 55 | 1.0 | 3.0 | 0.04 | 0.39 | 0.26 | 98 | 1016.4 |
| 20260505091403 | 55 | 54 | 1.0 | 3.0 | 0.04 | 0.39 | 0.26 | 99 | 1016.5 |
| 20260505091303 | 55 | 54 | 1.0 | 3.0 | 0.03 | 0.38 | 0.25 | 99 | 1016.3 |
| 20260505091203 | 55 | 54 | 1.0 | 3.0 | 0.03 | 0.38 | 0.25 | 99 | 1016.4 |
| 20260505091103 | 55 | 54 | 1.0 | 3.0 | 0.03 | 0.38 | 0.25 | 99 | 1016.5 |
| 20260505091003 | 55 | 54 | 1.0 | 3.0 | 0.03 | 0.38 | 0.25 | 99 | 1016.3 |
| 20260505090903 | 55 | 55 | 1.0 | 3.0 | 0.02 | 0.37 | 0.24 | 99 | 1016.4 |
| 20260505090803 | 55 | 56 | 1.0 | 3.0 | 0.01 | 0.36 | 0.23 | 99 | 1016.5 |
| 20260505090703 | 56 | 54 | 1.0 | 3.0 | 0.01 | 0.36 | 0.23 | 98 | 1016.3 |
| 20260505090603 | 58 | 47 | 1.0 | 3.0 | 0.00 | 0.35 | 0.22 | 99 | 1016.3 |
| 20260505090503 | 58 | 46 | 1.0 | 3.0 | 0.00 | 0.35 | 0.22 | 99 | 1016.2 |
| 20260505090403 | 58 | 47 | 1.0 | 3.0 | 0.00 | 0.35 | 0.22 | 99 | 1016.3 |
| 20260505090303 | 58 | 47 | 1.0 | 3.0 | 0.00 | 0.35 | 0.22 | 99 | 1016.3 |
| 20260505090203 | 58 | 47 | 1.0 | 3.0 | 0.00 | 0.35 | 0.22 | 99 | 1016.3 |
| 20260505090003 | 58 | 44 | 1.0 | 3.0 | 0.00 | 0.35 | 0.22 | 99 | 1016.2 |
| 20260505085903 | 58 | 44 | 1.0 | 3.0 | 0.00 | 0.35 | 0.22 | 99 | 1016.3 |
| 20260505085803 | 58 | 43 | 1.0 | 3.0 | 0.00 | 0.35 | 0.22 | 99 | 1016.3 |
| 20260505085724 | 58 | 40 | 1.0 | 3.0 | 0.00 | 0.35 | 0.22 | 99 | 1016.2 |
| 20260505085624 | 57 | 38 | 1.0 | 2.0 | 0.00 | 0.35 | 0.22 | 99 | 1016.4 |
| 20260505085503 | 57 | 45 | 1.0 | 2.0 | 0.00 | 0.35 | 0.22 | 99 | 1016.3 |
| 20260505085403 | 57 | 48 | 1.0 | 3.0 | 0.00 | 0.35 | 0.22 | 99 | 1016.2 |
| 20260505085304 | 57 | 53 | 1.0 | 3.0 | 0.00 | 0.35 | 0.22 | 99 | 1016.3 |
| 20260505085203 | 57 | 62 | 1.0 | 3.0 | 0.00 | 0.35 | 0.22 | 99 | 1016.1 |
| 20260505085124 | 57 | 62 | 1.0 | 3.0 | 0.00 | 0.35 | 0.22 | 99 | 1016.3 |
| 20260505085003 | 57 | 61 | 1.0 | 4.0 | 0.00 | 0.35 | 0.22 | 99 | 1016.5 |
| 20260505084903 | 56 | 64 | 2.0 | 4.0 | 0.00 | 0.35 | 0.22 | 99 | 1016.4 |
| 20260505084803 | 56 | 67 | 2.0 | 4.0 | 0.00 | 0.35 | 0.22 | 99 | 1016.1 |
| 20260505084703 | 55 | 66 | 2.0 | 4.0 | 0.00 | 0.35 | 0.22 | 99 | 1016.2 |
| 20260505084603 | 55 | 72 | 2.0 | 4.0 | 0.00 | 0.35 | 0.22 | 99 | 1016.2 |
| 20260505084524 | 55 | 72 | 2.0 | 4.0 | 0.00 | 0.35 | 0.22 | 99 | 1016.2 |
| 20260505084403 | 55 | 75 | 2.0 | 4.0 | 0.00 | 0.35 | 0.22 | 99 | 1016.2 |
| 20260505084303 | 54 | 75 | 2.0 | 4.0 | 0.00 | 0.35 | 0.22 | 99 | 1016.3 |
| 20260505084203 | 54 | 69 | 2.0 | 4.0 | 0.00 | 0.35 | 0.22 | 99 | 1016.3 |
| 20260505084103 | 54 | 70 | 2.0 | 4.0 | 0.00 | 0.35 | 0.22 | 99 | 1016.4 |
| 20260505084003 | 54 | 70 | 2.0 | 4.0 | 0.00 | 0.35 | 0.22 | 99 | 1016.4 |
| 20260505083903 | 54 | 73 | 2.0 | 4.0 | 0.00 | 0.35 | 0.22 | 99 | 1016.5 |
| 20260505083803 | 53 | 75 | 2.0 | 4.0 | 0.00 | 0.35 | 0.22 | 99 | 1016.3 |
| 20260505083703 | 53 | 74 | 2.0 | 4.0 | 0.00 | 0.35 | 0.22 | 99 | 1016.2 |
| 20260505083603 | 53 | 78 | 2.0 | 4.0 | 0.00 | 0.35 | 0.22 | 99 | 1016.3 |
| 20260505083503 | 53 | 72 | 2.0 | 3.0 | 0.00 | 0.35 | 0.22 | 99 | 1016.3 |
| 20260505083403 | 52 | 68 | 2.0 | 3.0 | 0.01 | 0.35 | 0.22 | 99 | 1016.4 |
| 20260505083303 | 51 | 66 | 2.0 | 3.0 | 0.01 | 0.35 | 0.22 | 99 | 1016.4 |
| 20260505083203 | 51 | 63 | 2.0 | 3.0 | 0.01 | 0.35 | 0.22 | 99 | 1016.4 |
| 20260505083103 | 51 | 65 | 2.0 | 3.0 | 0.01 | 0.35 | 0.22 | 99 | 1016.3 |
| 20260505083003 | 51 | 62 | 2.0 | 3.0 | 0.01 | 0.35 | 0.22 | 99 | 1016.2 |
| 20260505082903 | 51 | 61 | 2.0 | 3.0 | 0.01 | 0.35 | 0.22 | 99 | 1016.4 |
| 20260505082803 | 51 | 57 | 2.0 | 2.0 | 0.01 | 0.35 | 0.22 | 99 | 1016.4 |
| 20260505082703 | 51 | 55 | 1.0 | 2.0 | 0.01 | 0.35 | 0.22 | 99 | 1016.3 |
| 20260505082624 | 51 | 55 | 1.0 | 2.0 | 0.01 | 0.35 | 0.22 | 99 | 1016.3 |
| 20260505082503 | 50 | 52 | 1.0 | 2.0 | 0.01 | 0.35 | 0.22 | 99 | 1016.3 |
| 20260505082403 | 50 | 52 | 1.0 | 2.0 | 0.01 | 0.35 | 0.22 | 99 | 1016.3 |
| 20260505082304 | 50 | 51 | 1.0 | 2.0 | 0.01 | 0.35 | 0.22 | 99 | 1016.2 |
| 20260505082203 | 50 | 53 | 1.0 | 2.0 | 0.02 | 0.35 | 0.22 | 99 | 1016.3 |
| 20260505082103 | 50 | 52 | 1.0 | 3.0 | 0.02 | 0.35 | 0.22 | 99 | 1016.1 |
| 20260505082003 | 50 | 52 | 1.0 | 3.0 | 0.02 | 0.35 | 0.22 | 99 | 1016.4 |
| 20260505081903 | 50 | 52 | 1.0 | 3.0 | 0.02 | 0.35 | 0.22 | 99 | 1016.4 |
| 20260505081803 | 50 | 55 | 1.0 | 3.0 | 0.02 | 0.35 | 0.22 | 99 | 1016.3 |
| 20260505081703 | 50 | 57 | 2.0 | 3.0 | 0.02 | 0.35 | 0.22 | 99 | 1016.4 |
| 20260505081603 | 50 | 57 | 2.0 | 3.0 | 0.02 | 0.35 | 0.22 | 99 | 1016.1 |
| 20260505081503 | 50 | 58 | 2.0 | 3.0 | 0.02 | 0.35 | 0.22 | 99 | 1016.3 |
| 20260505081424 | 50 | 59 | 2.0 | 3.0 | 0.02 | 0.35 | 0.22 | 99 | 1016.4 |
| 20260505081303 | 50 | 59 | 2.0 | 3.0 | 0.02 | 0.35 | 0.22 | 99 | 1016.4 |
| 20260505081203 | 50 | 57 | 2.0 | 3.0 | 0.02 | 0.35 | 0.22 | 99 | 1016.3 |
| 20260505081103 | 50 | 57 | 2.0 | 3.0 | 0.02 | 0.35 | 0.22 | 99 | 1016.5 |
| 20260505081003 | 50 | 55 | 2.0 | 3.0 | 0.03 | 0.35 | 0.22 | 99 | 1016.4 |
| 20260505080924 | 50 | 55 | 2.0 | 3.0 | 0.03 | 0.35 | 0.22 | 99 | 1016.4 |
| 20260505080803 | 50 | 59 | 1.0 | 3.0 | 0.03 | 0.35 | 0.22 | 99 | 1016.3 |
| 20260505080703 | 50 | 55 | 1.0 | 2.0 | 0.04 | 0.35 | 0.22 | 99 | 1016.3 |
| 20260505080603 | 50 | 54 | 1.0 | 2.0 | 0.04 | 0.35 | 0.22 | 99 | 1016.4 |
| 20260505080503 | 50 | 54 | 1.0 | 2.0 | 0.05 | 0.35 | 0.22 | 99 | 1016.5 |
| 20260505080403 | 50 | 57 | 1.0 | 2.0 | 0.05 | 0.35 | 0.22 | 99 | 1016.5 |
| 20260505080303 | 50 | 57 | 1.0 | 2.0 | 0.05 | 0.35 | 0.22 | 99 | 1016.5 |
| 20260505080203 | 50 | 58 | 1.0 | 2.0 | 0.05 | 0.35 | 0.22 | 99 | 1016.5 |
| 20260505080103 | 50 | 59 | 1.0 | 2.0 | 0.05 | 0.35 | 0.22 | 99 | 1016.4 |
| 20260505080003 | 50 | 68 | 1.0 | 3.0 | 0.05 | 0.35 | 0.22 | 99 | 1016.3 |
| 20260505075924 | 50 | 68 | 1.0 | 3.0 | 0.05 | 0.35 | 0.22 | 99 | 1016.4 |
| 20260505075803 | 50 | 80 | 2.0 | 4.0 | 0.05 | 0.35 | 0.22 | 99 | 1016.4 |
| 20260505075703 | 50 | 78 | 2.0 | 4.0 | 0.05 | 0.35 | 0.22 | 99 | 1016.4 |
| 20260505075603 | 50 | 77 | 2.0 | 4.0 | 0.05 | 0.35 | 0.22 | 99 | 1016.3 |
| 20260505075524 | 50 | 81 | 2.0 | 4.0 | 0.05 | 0.35 | 0.22 | 99 | 1016.4 |
| 20260505075403 | 50 | 80 | 2.0 | 4.0 | 0.05 | 0.35 | 0.22 | 99 | 1016.5 |
| 20260505075304 | 50 | 79 | 2.0 | 4.0 | 0.05 | 0.35 | 0.22 | 99 | 1016.5 |
| 20260505075203 | 50 | 81 | 1.0 | 4.0 | 0.05 | 0.35 | 0.22 | 99 | 1016.4 |
| 20260505075103 | 50 | 84 | 1.0 | 4.0 | 0.05 | 0.35 | 0.22 | 99 | 1016.4 |
| 20260505075003 | 50 | 77 | 1.0 | 4.0 | 0.05 | 0.35 | 0.22 | 99 | 1016.7 |
| 20260505074924 | 50 | 77 | 1.0 | 4.0 | 0.05 | 0.35 | 0.22 | 99 | 1016.7 |
| 20260505074803 | 50 | 56 | 1.0 | 2.0 | 0.05 | 0.35 | 0.22 | 99 | 1016.4 |
| 20260505074703 | 50 | 58 | 1.0 | 2.0 | 0.05 | 0.35 | 0.22 | 99 | 1016.4 |
| 20260505074603 | 50 | 59 | 1.0 | 2.0 | 0.05 | 0.35 | 0.22 | 99 | 1016.4 |
| 20260505074503 | 50 | 50 | 0.0 | 2.0 | 0.05 | 0.35 | 0.22 | 99 | 1016.3 |
| 20260505074403 | 50 | 50 | 0.0 | 2.0 | 0.05 | 0.35 | 0.22 | 99 | 1016.3 |
| 20260505074303 | 50 | 47 | 0.0 | 1.0 | 0.06 | 0.35 | 0.22 | 99 | 1016.4 |
| 20260505074203 | 50 | 44 | 0.0 | 1.0 | 0.06 | 0.35 | 0.22 | 99 | 1016.2 |
| 20260505074103 | 49 | 48 | 1.0 | 2.0 | 0.06 | 0.35 | 0.22 | 99 | 1016.5 |
| 20260505074003 | 49 | 51 | 1.0 | 2.0 | 0.06 | 0.35 | 0.22 | 99 | 1016.5 |
| 20260505073903 | 49 | 51 | 1.0 | 2.0 | 0.06 | 0.35 | 0.22 | 99 | 1016.5 |
| 20260505073803 | 49 | 53 | 1.0 | 2.0 | 0.06 | 0.35 | 0.22 | 99 | 1016.5 |
| 20260505073703 | 49 | 53 | 1.0 | 2.0 | 0.06 | 0.35 | 0.22 | 99 | 1016.3 |
| 20260505073624 | 49 | 52 | 1.0 | 2.0 | 0.06 | 0.35 | 0.22 | 99 | 1016.3 |
| 20260505073503 | 49 | 54 | 1.0 | 2.0 | 0.07 | 0.35 | 0.22 | 99 | 1016.4 |
| 20260505073403 | 49 | 54 | 1.0 | 2.0 | 0.06 | 0.34 | 0.21 | 99 | 1016.5 |
| 20260505073303 | 49 | 55 | 1.0 | 2.0 | 0.06 | 0.34 | 0.21 | 99 | 1016.5 |
| 20260505073204 | 49 | 54 | 1.0 | 2.0 | 0.06 | 0.34 | 0.21 | 99 | 1016.6 |
| 20260505073103 | 49 | 53 | 1.0 | 2.0 | 0.07 | 0.34 | 0.21 | 99 | 1016.4 |
| 20260505073003 | 49 | 53 | 1.0 | 2.0 | 0.07 | 0.34 | 0.21 | 99 | 1016.4 |
| 20260505072903 | 49 | 52 | 1.0 | 2.0 | 0.08 | 0.34 | 0.21 | 99 | 1016.4 |
| 20260505072803 | 49 | 51 | 1.0 | 2.0 | 0.08 | 0.34 | 0.21 | 99 | 1016.5 |
| 20260505072703 | 49 | 51 | 1.0 | 2.0 | 0.08 | 0.34 | 0.21 | 99 | 1016.4 |
| 20260505072603 | 49 | 51 | 1.0 | 2.0 | 0.09 | 0.34 | 0.21 | 99 | 1016.4 |
| 20260505072503 | 50 | 48 | 1.0 | 2.0 | 0.09 | 0.34 | 0.21 | 99 | 1016.4 |
| 20260505072424 | 50 | 48 | 1.0 | 2.0 | 0.10 | 0.34 | 0.21 | 99 | 1016.4 |
| 20260505072304 | 49 | 48 | 1.0 | 2.0 | 0.10 | 0.34 | 0.21 | 99 | 1016.4 |
| 20260505072203 | 49 | 49 | 1.0 | 2.0 | 0.09 | 0.33 | 0.20 | 99 | 1016.2 |
| 20260505072103 | 49 | 48 | 1.0 | 2.0 | 0.10 | 0.33 | 0.20 | 99 | 1016.1 |
| 20260505072003 | 49 | 50 | 1.0 | 2.0 | 0.10 | 0.33 | 0.20 | 99 | 1016.2 |
| 20260505071924 | 49 | 47 | 1.0 | 2.0 | 0.10 | 0.33 | 0.20 | 99 | 1016.3 |
| 20260505071803 | 49 | 47 | 1.0 | 2.0 | 0.10 | 0.33 | 0.20 | 99 | 1016.5 |
| 20260505071703 | 49 | 46 | 1.0 | 2.0 | 0.11 | 0.33 | 0.20 | 99 | 1016.4 |
| 20260505071624 | 49 | 47 | 1.0 | 2.0 | 0.11 | 0.33 | 0.20 | 99 | 1016.4 |
| 20260505071524 | 49 | 47 | 1.0 | 2.0 | 0.11 | 0.33 | 0.20 | 99 | 1016.3 |
| 20260505071403 | 49 | 45 | 1.0 | 2.0 | 0.11 | 0.33 | 0.20 | 99 | 1016.5 |
| 20260505071303 | 49 | 44 | 1.0 | 2.0 | 0.11 | 0.33 | 0.20 | 99 | 1016.5 |
| 20260505071224 | 49 | 44 | 1.0 | 2.0 | 0.11 | 0.33 | 0.20 | 99 | 1016.3 |
| 20260505071124 | 49 | 48 | 1.0 | 2.0 | 0.11 | 0.33 | 0.20 | 99 | 1016.6 |
| 20260505071003 | 49 | 46 | 1.0 | 2.0 | 0.10 | 0.32 | 0.19 | 99 | 1016.3 |
| 20260505070903 | 49 | 48 | 1.0 | 2.0 | 0.10 | 0.32 | 0.19 | 99 | 1016.5 |
| 20260505070803 | 49 | 49 | 1.0 | 2.0 | 0.10 | 0.32 | 0.19 | 99 | 1016.2 |
| 20260505070703 | 49 | 52 | 1.0 | 2.0 | 0.09 | 0.31 | 0.18 | 99 | 1016.3 |
| 20260505070603 | 49 | 54 | 1.0 | 2.0 | 0.10 | 0.31 | 0.18 | 99 | 1016.4 |
| 20260505070503 | 49 | 56 | 1.0 | 2.0 | 0.09 | 0.30 | 0.17 | 99 | 1016.2 |
| 20260505070403 | 49 | 57 | 1.0 | 2.0 | 0.09 | 0.30 | 0.17 | 99 | 1016.2 |
| 20260505070303 | 49 | 56 | 1.0 | 2.0 | 0.10 | 0.30 | 0.17 | 99 | 1016.3 |
| 20260505070203 | 49 | 58 | 2.0 | 2.0 | 0.10 | 0.30 | 0.17 | 99 | 1016.1 |
| 20260505070003 | 49 | 58 | 2.0 | 2.0 | 0.11 | 0.30 | 0.17 | 99 | 1016.1 |
| 20260505065903 | 49 | 58 | 2.0 | 2.0 | 0.12 | 0.30 | 0.17 | 99 | 1016.1 |
| 20260505065824 | 49 | 58 | 1.0 | 2.0 | 0.12 | 0.30 | 0.17 | 99 | 1016.1 |
| 20260505065703 | 49 | 56 | 1.0 | 2.0 | 0.13 | 0.30 | 0.17 | 99 | 1016.1 |
| 20260505065603 | 49 | 54 | 1.0 | 2.0 | 0.13 | 0.30 | 0.17 | 99 | 1016.1 |
| 20260505065503 | 49 | 52 | 1.0 | 2.0 | 0.13 | 0.30 | 0.17 | 99 | 1016.0 |
| 20260505065403 | 49 | 50 | 1.0 | 2.0 | 0.13 | 0.30 | 0.17 | 99 | 1016.3 |
| 20260505065304 | 49 | 49 | 1.0 | 2.0 | 0.14 | 0.30 | 0.17 | 99 | 1016.2 |
| 20260505065203 | 49 | 49 | 1.0 | 2.0 | 0.14 | 0.30 | 0.17 | 99 | 1016.2 |
| 20260505065103 | 49 | 46 | 1.0 | 2.0 | 0.14 | 0.30 | 0.17 | 99 | 1016.2 |
| 20260505065024 | 49 | 43 | 1.0 | 2.0 | 0.14 | 0.30 | 0.17 | 99 | 1016.1 |
| 20260505064903 | 49 | 42 | 1.0 | 2.0 | 0.15 | 0.30 | 0.17 | 99 | 1016.0 |
| 20260505064803 | 49 | 42 | 1.0 | 2.0 | 0.15 | 0.30 | 0.17 | 99 | 1016.1 |
| 20260505064724 | 49 | 42 | 1.0 | 1.0 | 0.15 | 0.30 | 0.17 | 99 | 1016.1 |
| 20260505064624 | 49 | 42 | 1.0 | 1.0 | 0.15 | 0.30 | 0.17 | 99 | 1016.1 |
| 20260505064503 | 49 | 40 | 1.0 | 1.0 | 0.15 | 0.30 | 0.17 | 99 | 1016.2 |
| 20260505064403 | 49 | 40 | 1.0 | 1.0 | 0.15 | 0.30 | 0.17 | 99 | 1016.2 |
| 20260505064324 | 49 | 40 | 1.0 | 1.0 | 0.14 | 0.29 | 0.17 | 99 | 1016.2 |
| 20260505064203 | 49 | 39 | 0.0 | 1.0 | 0.14 | 0.29 | 0.16 | 99 | 1016.2 |
| 20260505064103 | 49 | 38 | 0.0 | 1.0 | 0.14 | 0.29 | 0.16 | 99 | 1016.1 |
| 20260505064003 | 49 | 38 | 0.0 | 1.0 | 0.15 | 0.29 | 0.16 | 99 | 1016.1 |
| 20260505063903 | 49 | 38 | 0.0 | 1.0 | 0.15 | 0.29 | 0.16 | 99 | 1016.1 |
| 20260505063803 | 49 | 37 | 0.0 | 1.0 | 0.15 | 0.29 | 0.16 | 99 | 1016.2 |
| 20260505063703 | 49 | 37 | 0.0 | 1.0 | 0.15 | 0.29 | 0.16 | 99 | 1016.1 |
| 20260505063603 | 49 | 37 | 0.0 | 1.0 | 0.15 | 0.29 | 0.16 | 99 | 1016.0 |
| 20260505063524 | 49 | 37 | 0.0 | 1.0 | 0.14 | 0.28 | 0.15 | 99 | 1016.1 |
| 20260505063403 | 49 | 37 | 0.0 | 1.0 | 0.14 | 0.28 | 0.15 | 99 | 1016.1 |
| 20260505063303 | 49 | 37 | 0.0 | 1.0 | 0.14 | 0.28 | 0.15 | 99 | 1016.1 |
| 20260505063224 | 49 | 0 | 0.0 | 0.0 | 0.14 | 0.28 | 0.15 | 99 | 1016.1 |
| 20260505063103 | 49 | 0 | 0.0 | 0.0 | 0.13 | 0.27 | 0.14 | 99 | 1016.1 |
| 20260505063003 | 49 | 0 | 0.0 | 0.0 | 0.13 | 0.27 | 0.14 | 99 | 1016.1 |
| 20260505062924 | 49 | 0 | 0.0 | 0.0 | 0.12 | 0.26 | 0.13 | 99 | 1016.1 |
| 20260505062824 | 49 | 39 | 0.0 | 1.0 | 0.12 | 0.26 | 0.13 | 99 | 1016.0 |
| 20260505062703 | 49 | 39 | 0.0 | 1.0 | 0.12 | 0.26 | 0.13 | 99 | 1016.1 |
| 20260505062603 | 49 | 39 | 0.0 | 1.0 | 0.11 | 0.25 | 0.12 | 99 | 1016.2 |
| 20260505062503 | 49 | 39 | 0.0 | 1.0 | 0.11 | 0.25 | 0.12 | 99 | 1016.0 |
| 20260505062403 | 49 | 39 | 0.0 | 1.0 | 0.10 | 0.24 | 0.11 | 99 | 1016.1 |
| 20260505062304 | 49 | 39 | 0.0 | 1.0 | 0.10 | 0.24 | 0.11 | 99 | 1016.2 |
| 20260505062203 | 49 | 40 | 0.0 | 1.0 | 0.10 | 0.24 | 0.11 | 99 | 1016.1 |
| 20260505062103 | 49 | 51 | 0.0 | 2.0 | 0.09 | 0.23 | 0.10 | 99 | 1016.2 |
| 20260505062003 | 49 | 53 | 0.0 | 2.0 | 0.09 | 0.23 | 0.10 | 99 | 1016.1 |
| 20260505061903 | 49 | 52 | 0.0 | 2.0 | 0.10 | 0.23 | 0.10 | 99 | 1016.1 |
| 20260505061803 | 49 | 53 | 0.0 | 2.0 | 0.10 | 0.23 | 0.10 | 99 | 1016.1 |
| 20260505061703 | 49 | 53 | 1.0 | 2.0 | 0.09 | 0.22 | 0.09 | 99 | 1016.2 |
| 20260505061603 | 49 | 52 | 1.0 | 2.0 | 0.09 | 0.22 | 0.09 | 99 | 1016.1 |
| 20260505061503 | 49 | 52 | 1.0 | 2.0 | 0.09 | 0.22 | 0.09 | 99 | 1016.1 |
| 20260505061403 | 49 | 52 | 1.0 | 2.0 | 0.09 | 0.22 | 0.09 | 99 | 1016.0 |
| 20260505061303 | 49 | 52 | 1.0 | 2.0 | 0.09 | 0.22 | 0.09 | 99 | 1016.1 |
| 20260505061203 | 49 | 52 | 1.0 | 2.0 | 0.09 | 0.22 | 0.09 | 99 | 1015.9 |
| 20260505061124 | 48 | 53 | 1.0 | 2.0 | 0.09 | 0.22 | 0.09 | 99 | 1015.9 |
| 20260505061003 | 48 | 51 | 1.0 | 2.0 | 0.09 | 0.22 | 0.09 | 99 | 1016.1 |
| 20260505060903 | 48 | 50 | 1.0 | 2.0 | 0.09 | 0.22 | 0.09 | 99 | 1016.0 |
| 20260505060803 | 48 | 49 | 1.0 | 2.0 | 0.09 | 0.22 | 0.09 | 99 | 1016.2 |
| 20260505060703 | 48 | 49 | 1.0 | 2.0 | 0.09 | 0.22 | 0.09 | 99 | 1016.0 |
| 20260505060603 | 48 | 48 | 1.0 | 2.0 | 0.08 | 0.21 | 0.08 | 99 | 1015.8 |
| 20260505060524 | 48 | 54 | 1.0 | 2.0 | 0.08 | 0.21 | 0.08 | 99 | 1016.0 |
| 20260505060403 | 48 | 52 | 1.0 | 2.0 | 0.08 | 0.21 | 0.08 | 99 | 1016.1 |
| 20260505060303 | 48 | 51 | 1.0 | 2.0 | 0.07 | 0.20 | 0.07 | 99 | 1016.1 |
| 20260505060203 | 48 | 50 | 1.0 | 2.0 | 0.07 | 0.20 | 0.07 | 99 | 1016.1 |
| 20260505060003 | 48 | 49 | 1.0 | 2.0 | 0.06 | 0.19 | 0.06 | 99 | 1016.2 |
| 20260505055903 | 48 | 48 | 1.0 | 2.0 | 0.05 | 0.18 | 0.05 | 99 | 1015.9 |
| 20260505055803 | 48 | 52 | 1.0 | 2.0 | 0.05 | 0.18 | 0.05 | 99 | 1016.0 |
| 20260505055703 | 48 | 52 | 1.0 | 2.0 | 0.04 | 0.17 | 0.04 | 98 | 1016.0 |
| 20260505055603 | 48 | 52 | 1.0 | 2.0 | 0.04 | 0.17 | 0.04 | 98 | 1016.0 |
| 20260505055503 | 48 | 51 | 1.0 | 2.0 | 0.04 | 0.17 | 0.04 | 99 | 1015.8 |
| 20260505055403 | 48 | 45 | 1.0 | 2.0 | 0.04 | 0.17 | 0.04 | 99 | 1016.0 |
| 20260505055304 | 48 | 45 | 1.0 | 2.0 | 0.03 | 0.16 | 0.03 | 99 | 1016.0 |
| 20260505055224 | 48 | 46 | 1.0 | 2.0 | 0.03 | 0.16 | 0.03 | 98 | 1016.0 |
| 20260505055103 | 48 | 45 | 1.0 | 2.0 | 0.03 | 0.16 | 0.03 | 99 | 1015.9 |
| 20260505055024 | 48 | 50 | 1.0 | 2.0 | 0.03 | 0.16 | 0.03 | 99 | 1015.9 |
| 20260505054903 | 48 | 50 | 1.0 | 2.0 | 0.02 | 0.15 | 0.02 | 99 | 1015.8 |
| 20260505054824 | 48 | 50 | 1.0 | 2.0 | 0.02 | 0.15 | 0.02 | 99 | 1015.8 |
| 20260505054724 | 48 | 50 | 1.0 | 2.0 | 0.02 | 0.15 | 0.02 | 99 | 1015.8 |
| 20260505054624 | 48 | 47 | 1.0 | 2.0 | 0.02 | 0.15 | 0.02 | 99 | 1016.1 |
| 20260505054503 | 48 | 48 | 1.0 | 2.0 | 0.02 | 0.15 | 0.02 | 99 | 1016.1 |
| 20260505054403 | 48 | 48 | 1.0 | 2.0 | 0.02 | 0.15 | 0.02 | 99 | 1016.0 |
| 20260505054303 | 48 | 47 | 1.0 | 2.0 | 0.02 | 0.15 | 0.02 | 99 | 1016.1 |
| 20260505054224 | 48 | 47 | 1.0 | 2.0 | 0.02 | 0.15 | 0.02 | 99 | 1016.1 |
| 20260505054124 | 48 | 48 | 1.0 | 2.0 | 0.02 | 0.15 | 0.02 | 99 | 1016.0 |
| 20260505054004 | 48 | 41 | 1.0 | 1.0 | 0.01 | 0.14 | 0.01 | 99 | 1016.0 |
| 20260505053924 | 48 | 41 | 1.0 | 1.0 | 0.01 | 0.14 | 0.01 | 99 | 1016.0 |
| 20260505053824 | 48 | 42 | 0.0 | 1.0 | 0.01 | 0.14 | 0.01 | 99 | 1016.1 |
| 20260505053703 | 48 | 42 | 0.0 | 1.0 | 0.01 | 0.14 | 0.01 | 99 | 1015.9 |
| 20260505053603 | 48 | 39 | 0.0 | 1.0 | 0.01 | 0.14 | 0.01 | 99 | 1016.0 |
| 20260505053503 | 48 | 39 | 0.0 | 1.0 | 0.01 | 0.14 | 0.01 | 99 | 1015.9 |
| 20260505053403 | 48 | 40 | 0.0 | 1.0 | 0.01 | 0.14 | 0.01 | 99 | 1016.0 |
| 20260505053303 | 48 | 39 | 0.0 | 1.0 | 0.01 | 0.14 | 0.01 | 99 | 1016.0 |
| 20260505053224 | 48 | 40 | 0.0 | 1.0 | 0.01 | 0.14 | 0.01 | 99 | 1016.0 |
| 20260505053103 | 48 | 40 | 0.0 | 1.0 | 0.01 | 0.14 | 0.01 | 99 | 1015.9 |
| 20260505053003 | 48 | 40 | 0.0 | 1.0 | 0.01 | 0.14 | 0.01 | 99 | 1015.8 |
| 20260505052903 | 48 | 40 | 0.0 | 1.0 | 0.01 | 0.14 | 0.01 | 99 | 1016.0 |
| 20260505052803 | 48 | 40 | 0.0 | 1.0 | 0.01 | 0.14 | 0.01 | 99 | 1015.9 |
| 20260505052724 | 48 | 40 | 0.0 | 1.0 | 0.01 | 0.14 | 0.01 | 99 | 1016.0 |
| 20260505052603 | 48 | 41 | 0.0 | 1.0 | 0.01 | 0.14 | 0.01 | 99 | 1015.8 |
| 20260505052503 | 48 | 41 | 0.0 | 1.0 | 0.01 | 0.14 | 0.01 | 99 | 1015.9 |
| 20260505052403 | 48 | 43 | 0.0 | 1.0 | 0.01 | 0.14 | 0.01 | 99 | 1015.8 |
| 20260505052304 | 48 | 43 | 0.0 | 1.0 | 0.01 | 0.14 | 0.01 | 99 | 1015.8 |
| 20260505052203 | 48 | 43 | 0.0 | 1.0 | 0.01 | 0.14 | 0.01 | 99 | 1016.0 |
| 20260505052103 | 48 | 43 | 0.0 | 1.0 | 0.01 | 0.14 | 0.01 | 99 | 1015.9 |
| 20260505052004 | 48 | 45 | 1.0 | 1.0 | 0.01 | 0.14 | 0.01 | 99 | 1015.9 |
| 20260505051903 | 48 | 45 | 1.0 | 1.0 | 0.00 | 0.13 | 0.00 | 99 | 1015.9 |
| 20260505051803 | 48 | 46 | 1.0 | 1.0 | 0.00 | 0.13 | 0.00 | 99 | 1015.9 |
| 20260505051724 | 48 | 46 | 1.0 | 1.0 | 0.00 | 0.13 | 0.00 | 99 | 1016.0 |
| 20260505051624 | 48 | 47 | 1.0 | 1.0 | 0.00 | 0.13 | 0.00 | 99 | 1015.8 |
| 20260505051503 | 48 | 46 | 1.0 | 1.0 | 0.00 | 0.13 | 0.00 | 99 | 1015.9 |
| 20260505051424 | 48 | 46 | 1.0 | 1.0 | 0.00 | 0.13 | 0.00 | 99 | 1015.9 |
| 20260505051303 | 48 | 45 | 1.0 | 2.0 | 0.00 | 0.13 | 0.00 | 99 | 1016.0 |
| 20260505051203 | 48 | 45 | 1.0 | 2.0 | 0.00 | 0.13 | 0.00 | 99 | 1016.0 |
| 20260505051124 | 48 | 46 | 1.0 | 2.0 | 0.00 | 0.13 | 0.00 | 99 | 1015.9 |
| 20260505051003 | 48 | 45 | 1.0 | 2.0 | 0.00 | 0.13 | 0.00 | 99 | 1016.0 |
| 20260505050924 | 48 | 45 | 1.0 | 2.0 | 0.00 | 0.13 | 0.00 | 99 | 1015.9 |
| 20260505050803 | 48 | 46 | 1.0 | 2.0 | 0.00 | 0.13 | 0.00 | 99 | 1015.9 |
| 20260505050703 | 48 | 49 | 1.0 | 3.0 | 0.00 | 0.13 | 0.00 | 99 | 1015.9 |
| 20260505050603 | 48 | 50 | 1.0 | 3.0 | 0.00 | 0.13 | 0.00 | 99 | 1015.9 |
| 20260505050503 | 48 | 50 | 2.0 | 3.0 | 0.00 | 0.13 | 0.00 | 99 | 1015.7 |
| 20260505050403 | 48 | 50 | 2.0 | 3.0 | 0.00 | 0.13 | 0.00 | 99 | 1015.8 |
| 20260505050303 | 48 | 51 | 2.0 | 3.0 | 0.00 | 0.13 | 0.00 | 99 | 1015.8 |
| 20260505050224 | 48 | 51 | 2.0 | 3.0 | 0.00 | 0.13 | 0.00 | 99 | 1015.8 |
| 20260505041703 | 47 | 46 | 1.0 | 2.0 | 0.00 | 0.13 | 0.00 | 99 | 1015.8 |
| 20260505041624 | 47 | 46 | 1.0 | 2.0 | 0.00 | 0.13 | 0.00 | 99 | 1015.8 |
| 20260505041503 | 47 | 47 | 1.0 | 2.0 | 0.00 | 0.13 | 0.00 | 99 | 1015.8 |
| 20260505041403 | 47 | 47 | 1.0 | 2.0 | 0.00 | 0.13 | 0.00 | 99 | 1015.9 |
| 20260505041324 | 47 | 48 | 1.0 | 2.0 | 0.00 | 0.13 | 0.00 | 99 | 1015.8 |
| 20260505041203 | 47 | 46 | 1.0 | 2.0 | 0.00 | 0.13 | 0.00 | 99 | 1015.9 |
| 20260505041103 | 47 | 47 | 1.0 | 2.0 | 0.00 | 0.13 | 0.00 | 99 | 1015.9 |
| 20260505041003 | 47 | 46 | 1.0 | 2.0 | 0.00 | 0.13 | 0.00 | 99 | 1015.9 |
| 20260505040924 | 47 | 45 | 0.0 | 2.0 | 0.00 | 0.13 | 0.00 | 99 | 1015.7 |
| 20260505040803 | 47 | 46 | 0.0 | 2.0 | 0.00 | 0.13 | 0.00 | 99 | 1015.8 |
| 20260505040703 | 47 | 49 | 0.0 | 2.0 | 0.00 | 0.13 | 0.00 | 99 | 1015.9 |
| 20260505040603 | 47 | 49 | 0.0 | 2.0 | 0.00 | 0.13 | 0.00 | 99 | 1015.9 |
| 20260505040524 | 47 | 49 | 0.0 | 2.0 | 0.00 | 0.13 | 0.00 | 99 | 1016.0 |
| 20260505040424 | 47 | 48 | 0.0 | 2.0 | 0.00 | 0.13 | 0.00 | 99 | 1016.0 |
| 20260505040303 | 47 | 48 | 0.0 | 2.0 | 0.00 | 0.13 | 0.00 | 99 | 1016.0 |
| 20260505040203 | 47 | 49 | 0.0 | 2.0 | 0.00 | 0.13 | 0.00 | 99 | 1016.0 |
| 20260505040003 | 47 | 49 | 0.0 | 2.0 | 0.00 | 0.13 | 0.00 | 99 | 1016.1 |
| 20260505035903 | 47 | 51 | 0.0 | 2.0 | 0.00 | 0.13 | 0.00 | 99 | 1016.0 |
| 20260505035803 | 47 | 49 | 0.0 | 2.0 | 0.00 | 0.13 | 0.00 | 99 | 1016.0 |
| 20260505035703 | 47 | 38 | 0.0 | 1.0 | 0.00 | 0.13 | 0.00 | 99 | 1016.2 |
| 20260505035603 | 47 | 38 | 0.0 | 1.0 | 0.00 | 0.13 | 0.00 | 99 | 1015.9 |
| 20260505035503 | 47 | 40 | 0.0 | 1.0 | 0.00 | 0.13 | 0.00 | 99 | 1016.1 |
| 20260505035403 | 47 | 42 | 0.0 | 1.0 | 0.00 | 0.13 | 0.00 | 99 | 1016.1 |
| 20260505035324 | 47 | 42 | 0.0 | 1.0 | 0.00 | 0.13 | 0.00 | 99 | 1016.1 |
| 20260505035224 | 47 | 40 | 0.0 | 1.0 | 0.00 | 0.13 | 0.00 | 99 | 1016.1 |
| 20260505035103 | 47 | 40 | 0.0 | 2.0 | 0.00 | 0.13 | 0.00 | 99 | 1016.1 |
| 20260505035024 | 47 | 40 | 0.0 | 2.0 | 0.00 | 0.13 | 0.00 | 99 | 1016.0 |
| 20260505034924 | 47 | 40 | 0.0 | 2.0 | 0.00 | 0.13 | 0.00 | 99 | 1016.2 |
| 20260505034803 | 47 | 40 | 0.0 | 2.0 | 0.00 | 0.13 | 0.00 | 99 | 1016.2 |
| 20260505034703 | 47 | 40 | 0.0 | 2.0 | 0.00 | 0.13 | 0.00 | 99 | 1016.3 |
| 20260505034603 | 47 | 40 | 1.0 | 2.0 | 0.00 | 0.13 | 0.00 | 99 | 1016.1 |
| 20260505034503 | 47 | 40 | 1.0 | 2.0 | 0.00 | 0.13 | 0.00 | 99 | 1016.1 |
| 20260505034403 | 47 | 41 | 1.0 | 2.0 | 0.00 | 0.13 | 0.00 | 99 | 1016.1 |
| 20260505034303 | 47 | 41 | 1.0 | 2.0 | 0.00 | 0.13 | 0.00 | 99 | 1016.0 |
| 20260505034203 | 47 | 41 | 1.0 | 2.0 | 0.00 | 0.13 | 0.00 | 99 | 1016.0 |
| 20260505034103 | 47 | 41 | 1.0 | 2.0 | 0.00 | 0.13 | 0.00 | 99 | 1016.0 |
| 20260505034003 | 47 | 41 | 1.0 | 2.0 | 0.00 | 0.13 | 0.00 | 99 | 1016.1 |
| 20260505033903 | 47 | 41 | 1.0 | 2.0 | 0.00 | 0.13 | 0.00 | 99 | 1016.2 |
| 20260505033803 | 47 | 41 | 1.0 | 2.0 | 0.00 | 0.13 | 0.00 | 99 | 1016.0 |
| 20260505033703 | 47 | 40 | 1.0 | 2.0 | 0.00 | 0.13 | 0.00 | 99 | 1016.1 |
| 20260505033603 | 47 | 40 | 1.0 | 1.0 | 0.00 | 0.13 | 0.00 | 99 | 1016.0 |
| 20260505033503 | 47 | 40 | 1.0 | 1.0 | 0.00 | 0.13 | 0.00 | 99 | 1016.0 |
| 20260505033403 | 47 | 39 | 1.0 | 1.0 | 0.00 | 0.13 | 0.00 | 99 | 1015.9 |
| 20260505033303 | 47 | 39 | 1.0 | 1.0 | 0.00 | 0.13 | 0.00 | 99 | 1016.1 |
| 20260505033203 | 47 | 39 | 1.0 | 1.0 | 0.00 | 0.13 | 0.00 | 99 | 1016.1 |
| 20260505033103 | 47 | 40 | 0.0 | 1.0 | 0.00 | 0.13 | 0.00 | 99 | 1016.0 |
| 20260505033003 | 47 | 40 | 0.0 | 1.0 | 0.00 | 0.13 | 0.00 | 99 | 1016.1 |
| 20260505032903 | 47 | 42 | 0.0 | 1.0 | 0.00 | 0.13 | 0.00 | 99 | 1016.0 |
| 20260505032803 | 47 | 42 | 0.0 | 1.0 | 0.00 | 0.13 | 0.00 | 99 | 1015.9 |
| 20260505032703 | 47 | 43 | 0.0 | 1.0 | 0.00 | 0.13 | 0.00 | 99 | 1016.2 |
| 20260505032603 | 47 | 45 | 1.0 | 2.0 | 0.00 | 0.13 | 0.00 | 99 | 1016.1 |
| 20260505032525 | 47 | 45 | 1.0 | 2.0 | 0.00 | 0.13 | 0.00 | 99 | 1016.1 |
| 20260505032403 | 47 | 46 | 1.0 | 2.0 | 0.00 | 0.13 | 0.00 | 99 | 1016.1 |
| 20260505032325 | 47 | 45 | 1.0 | 2.0 | 0.00 | 0.13 | 0.00 | 99 | 1016.0 |
| 20260505032203 | 47 | 45 | 1.0 | 2.0 | 0.00 | 0.13 | 0.00 | 99 | 1015.9 |
| 20260505032103 | 47 | 45 | 1.0 | 2.0 | 0.00 | 0.13 | 0.00 | 99 | 1016.1 |
| 20260505032003 | 47 | 45 | 1.0 | 2.0 | 0.00 | 0.13 | 0.00 | 99 | 1016.1 |
| 20260505031903 | 47 | 44 | 1.0 | 2.0 | 0.00 | 0.13 | 0.00 | 99 | 1016.0 |
| 20260505031803 | 47 | 42 | 1.0 | 2.0 | 0.00 | 0.13 | 0.00 | 99 | 1016.0 |
| 20260505031724 | 47 | 42 | 1.0 | 2.0 | 0.00 | 0.13 | 0.00 | 99 | 1016.1 |
| 20260505031603 | 47 | 42 | 1.0 | 2.0 | 0.00 | 0.13 | 0.00 | 99 | 1016.2 |
| 20260505031504 | 47 | 40 | 1.0 | 2.0 | 0.00 | 0.13 | 0.00 | 99 | 1016.1 |
| 20260505031403 | 47 | 41 | 1.0 | 2.0 | 0.00 | 0.13 | 0.00 | 99 | 1016.3 |
| 20260505031324 | 47 | 40 | 1.0 | 2.0 | 0.00 | 0.13 | 0.00 | 99 | 1016.1 |
| 20260505031203 | 47 | 43 | 1.0 | 2.0 | 0.00 | 0.13 | 0.00 | 99 | 1016.2 |
| 20260505031103 | 47 | 45 | 1.0 | 2.0 | 0.00 | 0.13 | 0.00 | 99 | 1016.1 |
| 20260505031003 | 47 | 46 | 1.0 | 2.0 | 0.00 | 0.13 | 0.00 | 99 | 1016.2 |
| 20260505030903 | 47 | 48 | 1.0 | 2.0 | 0.00 | 0.13 | 0.00 | 99 | 1016.3 |
| 20260505030803 | 47 | 52 | 1.0 | 2.0 | 0.00 | 0.13 | 0.00 | 99 | 1016.3 |
| 20260505030724 | 47 | 52 | 1.0 | 2.0 | 0.00 | 0.13 | 0.00 | 99 | 1016.3 |
| 20260505030603 | 47 | 53 | 1.0 | 2.0 | 0.00 | 0.13 | 0.00 | 99 | 1016.2 |
| 20260505030503 | 47 | 54 | 1.0 | 2.0 | 0.00 | 0.13 | 0.00 | 99 | 1016.2 |
| 20260505030403 | 47 | 54 | 1.0 | 2.0 | 0.00 | 0.13 | 0.00 | 99 | 1016.2 |
| 20260505030324 | 47 | 53 | 1.0 | 2.0 | 0.00 | 0.13 | 0.00 | 99 | 1016.2 |
| 20260505030203 | 47 | 55 | 1.0 | 2.0 | 0.00 | 0.13 | 0.00 | 99 | 1016.1 |
| 20260505030103 | 47 | 53 | 1.0 | 2.0 | 0.00 | 0.13 | 0.00 | 99 | 1016.1 |
| 20260505030003 | 47 | 53 | 1.0 | 2.0 | 0.00 | 0.13 | 0.00 | 99 | 1016.2 |
| 20260505025903 | 47 | 52 | 1.0 | 2.0 | 0.00 | 0.13 | 0.00 | 99 | 1016.2 |
| 20260505025803 | 47 | 53 | 1.0 | 2.0 | 0.00 | 0.13 | 0.00 | 99 | 1016.1 |
| 20260505025703 | 47 | 48 | 0.0 | 2.0 | 0.00 | 0.13 | 0.00 | 99 | 1016.2 |
| 20260505025624 | 47 | 50 | 0.0 | 2.0 | 0.00 | 0.13 | 0.00 | 99 | 1016.2 |
| 20260505025503 | 47 | 45 | 0.0 | 1.0 | 0.00 | 0.13 | 0.00 | 99 | 1016.0 |
| 20260505025424 | 47 | 45 | 0.0 | 1.0 | 0.00 | 0.13 | 0.00 | 99 | 1016.0 |
| 20260505025305 | 47 | 44 | 0.0 | 1.0 | 0.00 | 0.13 | 0.00 | 99 | 1016.2 |
| 20260505025203 | 47 | 44 | 0.0 | 1.0 | 0.00 | 0.13 | 0.00 | 99 | 1016.2 |
| 20260505025103 | 47 | 42 | 0.0 | 1.0 | 0.00 | 0.13 | 0.00 | 99 | 1016.3 |
| 20260505025003 | 47 | 45 | 1.0 | 2.0 | 0.00 | 0.13 | 0.00 | 99 | 1016.3 |
| 20260505024903 | 47 | 44 | 1.0 | 2.0 | 0.00 | 0.13 | 0.00 | 99 | 1016.2 |
| 20260505024803 | 47 | 44 | 1.0 | 2.0 | 0.00 | 0.13 | 0.00 | 99 | 1016.2 |
| 20260505024703 | 47 | 44 | 1.0 | 2.0 | 0.00 | 0.13 | 0.00 | 99 | 1016.3 |
| 20260505024603 | 47 | 43 | 1.0 | 2.0 | 0.00 | 0.13 | 0.00 | 99 | 1016.3 |
| 20260505024503 | 47 | 43 | 1.0 | 2.0 | 0.00 | 0.13 | 0.00 | 99 | 1016.2 |
| 20260505024403 | 47 | 43 | 1.0 | 2.0 | 0.00 | 0.13 | 0.00 | 99 | 1016.4 |
| 20260505024324 | 47 | 45 | 1.0 | 2.0 | 0.00 | 0.13 | 0.00 | 99 | 1016.6 |
| 20260505024203 | 47 | 45 | 1.0 | 2.0 | 0.00 | 0.13 | 0.00 | 99 | 1016.3 |
| 20260505024103 | 47 | 45 | 1.0 | 2.0 | 0.00 | 0.13 | 0.00 | 99 | 1016.5 |
| 20260505024003 | 47 | 45 | 1.0 | 2.0 | 0.00 | 0.13 | 0.00 | 99 | 1016.3 |
| 20260505023903 | 47 | 43 | 1.0 | 2.0 | 0.00 | 0.13 | 0.00 | 99 | 1016.3 |
| 20260505023824 | 47 | 43 | 1.0 | 2.0 | 0.00 | 0.13 | 0.00 | 99 | 1016.3 |
| 20260505023703 | 47 | 43 | 1.0 | 2.0 | 0.00 | 0.13 | 0.00 | 99 | 1016.4 |
| 20260505023603 | 47 | 44 | 1.0 | 2.0 | 0.00 | 0.13 | 0.00 | 99 | 1016.1 |
| 20260505023503 | 47 | 44 | 1.0 | 2.0 | 0.00 | 0.13 | 0.00 | 99 | 1016.1 |
| 20260505023403 | 47 | 56 | 1.0 | 3.0 | 0.00 | 0.13 | 0.00 | 99 | 1016.3 |
| 20260505023303 | 47 | 56 | 1.0 | 3.0 | 0.00 | 0.13 | 0.00 | 99 | 1016.4 |
| 20260505023224 | 47 | 60 | 1.0 | 3.0 | 0.00 | 0.13 | 0.00 | 99 | 1016.3 |
| 20260505023103 | 47 | 60 | 1.0 | 3.0 | 0.00 | 0.13 | 0.00 | 99 | 1016.2 |
| 20260505023003 | 47 | 60 | 1.0 | 3.0 | 0.00 | 0.13 | 0.00 | 99 | 1016.2 |
| 20260505022903 | 47 | 63 | 1.0 | 3.0 | 0.00 | 0.13 | 0.00 | 99 | 1016.3 |
| 20260505022824 | 47 | 65 | 1.0 | 3.0 | 0.00 | 0.13 | 0.00 | 99 | 1016.4 |
| 20260505022703 | 47 | 64 | 2.0 | 3.0 | 0.00 | 0.13 | 0.00 | 99 | 1016.2 |
| 20260505022603 | 47 | 66 | 1.0 | 3.0 | 0.00 | 0.13 | 0.00 | 99 | 1016.1 |
| 20260505022504 | 47 | 67 | 2.0 | 3.0 | 0.00 | 0.13 | 0.00 | 99 | 1016.2 |
| 20260505022403 | 47 | 67 | 2.0 | 3.0 | 0.00 | 0.13 | 0.00 | 99 | 1016.2 |
| 20260505022304 | 47 | 60 | 2.0 | 3.0 | 0.00 | 0.13 | 0.00 | 99 | 1016.3 |
| 20260505022224 | 47 | 59 | 2.0 | 3.0 | 0.00 | 0.13 | 0.00 | 99 | 1016.2 |
| 20260505022104 | 47 | 56 | 1.0 | 3.0 | 0.00 | 0.13 | 0.00 | 99 | 1016.2 |
| 20260505022003 | 47 | 56 | 1.0 | 3.0 | 0.00 | 0.13 | 0.00 | 99 | 1016.0 |
| 20260505021903 | 47 | 56 | 1.0 | 3.0 | 0.00 | 0.13 | 0.00 | 99 | 1016.1 |
| 20260505021803 | 47 | 55 | 1.0 | 3.0 | 0.00 | 0.13 | 0.00 | 99 | 1016.3 |
| 20260505021703 | 47 | 51 | 1.0 | 2.0 | 0.00 | 0.13 | 0.00 | 99 | 1016.2 |
| 20260505021603 | 47 | 51 | 1.0 | 2.0 | 0.00 | 0.13 | 0.00 | 99 | 1016.2 |
| 20260505021503 | 47 | 49 | 1.0 | 2.0 | 0.00 | 0.13 | 0.00 | 99 | 1016.2 |
| 20260505021403 | 47 | 46 | 1.0 | 2.0 | 0.00 | 0.13 | 0.00 | 99 | 1016.4 |
| 20260505021303 | 47 | 42 | 1.0 | 2.0 | 0.00 | 0.13 | 0.00 | 99 | 1016.3 |
| 20260505021203 | 47 | 45 | 1.0 | 2.0 | 0.00 | 0.13 | 0.00 | 99 | 1016.3 |
| 20260505021103 | 47 | 45 | 0.0 | 2.0 | 0.00 | 0.13 | 0.00 | 99 | 1016.2 |
| 20260505021003 | 47 | 44 | 1.0 | 2.0 | 0.00 | 0.13 | 0.00 | 99 | 1016.3 |
| 20260505020903 | 47 | 44 | 1.0 | 2.0 | 0.00 | 0.13 | 0.00 | 99 | 1016.2 |
| 20260505020803 | 47 | 44 | 1.0 | 2.0 | 0.00 | 0.13 | 0.00 | 99 | 1016.2 |
| 20260505020703 | 47 | 40 | 1.0 | 1.0 | 0.00 | 0.13 | 0.00 | 99 | 1016.4 |
| 20260505020603 | 47 | 42 | 1.0 | 1.0 | 0.00 | 0.13 | 0.00 | 99 | 1016.4 |
| 20260505020503 | 47 | 41 | 1.0 | 1.0 | 0.00 | 0.13 | 0.00 | 99 | 1016.3 |
| 20260505020403 | 47 | 41 | 1.0 | 1.0 | 0.00 | 0.13 | 0.00 | 99 | 1016.4 |
| 20260505020303 | 47 | 41 | 1.0 | 1.0 | 0.00 | 0.13 | 0.00 | 99 | 1016.3 |
| 20260505020203 | 47 | 43 | 1.0 | 1.0 | 0.00 | 0.13 | 0.00 | 99 | 1016.3 |
| 20260505020103 | 47 | 41 | 1.0 | 2.0 | 0.00 | 0.13 | 0.00 | 99 | 1016.3 |
| 20260505020003 | 47 | 41 | 1.0 | 2.0 | 0.00 | 0.13 | 0.00 | 99 | 1016.3 |
| 20260505015903 | 47 | 42 | 1.0 | 2.0 | 0.00 | 0.13 | 0.00 | 99 | 1016.3 |
| 20260505015803 | 47 | 43 | 1.0 | 2.0 | 0.00 | 0.13 | 0.00 | 99 | 1016.4 |
| 20260505015703 | 47 | 45 | 1.0 | 2.0 | 0.00 | 0.13 | 0.00 | 99 | 1016.5 |
| 20260505015603 | 47 | 46 | 1.0 | 2.0 | 0.00 | 0.13 | 0.00 | 99 | 1016.2 |
| 20260505015524 | 47 | 46 | 1.0 | 2.0 | 0.00 | 0.13 | 0.00 | 99 | 1016.2 |
| 20260505015403 | 47 | 46 | 1.0 | 2.0 | 0.00 | 0.13 | 0.00 | 99 | 1016.4 |
| 20260505015304 | 47 | 46 | 1.0 | 2.0 | 0.00 | 0.13 | 0.00 | 99 | 1016.3 |
| 20260505015224 | 47 | 46 | 1.0 | 2.0 | 0.00 | 0.13 | 0.00 | 99 | 1016.3 |
| 20260505015103 | 47 | 45 | 1.0 | 2.0 | 0.00 | 0.13 | 0.00 | 99 | 1016.4 |
| 20260505015003 | 47 | 45 | 1.0 | 2.0 | 0.00 | 0.13 | 0.00 | 99 | 1016.5 |
| 20260505014903 | 47 | 46 | 1.0 | 2.0 | 0.00 | 0.13 | 0.00 | 99 | 1016.4 |
| 20260505014803 | 47 | 45 | 1.0 | 2.0 | 0.00 | 0.13 | 0.00 | 99 | 1016.5 |
| 20260505014703 | 47 | 45 | 1.0 | 2.0 | 0.00 | 0.13 | 0.00 | 99 | 1016.5 |
| 20260505014603 | 47 | 42 | 0.0 | 2.0 | 0.00 | 0.13 | 0.00 | 99 | 1016.4 |
| 20260505014503 | 47 | 40 | 0.0 | 2.0 | 0.00 | 0.13 | 0.00 | 99 | 1016.5 |
| 20260505014403 | 47 | 38 | 0.0 | 1.0 | 0.00 | 0.13 | 0.00 | 99 | 1016.6 |
| 20260505014303 | 47 | 38 | 0.0 | 1.0 | 0.00 | 0.13 | 0.00 | 99 | 1016.5 |
| 20260505014203 | 47 | 39 | 0.0 | 1.0 | 0.00 | 0.13 | 0.00 | 99 | 1016.5 |
| 20260505014125 | 47 | 39 | 0.0 | 1.0 | 0.00 | 0.13 | 0.00 | 99 | 1016.5 |
| 20260505014025 | 47 | 39 | 0.0 | 1.0 | 0.00 | 0.13 | 0.00 | 99 | 1016.5 |
| 20260505013903 | 47 | 39 | 0.0 | 1.0 | 0.00 | 0.13 | 0.00 | 99 | 1016.5 |
| 20260505013803 | 47 | 37 | 0.0 | 1.0 | 0.00 | 0.13 | 0.00 | 99 | 1016.6 |
| 20260505013703 | 47 | 38 | 0.0 | 1.0 | 0.00 | 0.13 | 0.00 | 99 | 1016.6 |
| 20260505013604 | 47 | 38 | 0.0 | 1.0 | 0.00 | 0.13 | 0.00 | 99 | 1016.4 |
| 20260505013503 | 47 | 38 | 0.0 | 1.0 | 0.00 | 0.13 | 0.00 | 99 | 1016.4 |
| 20260505013403 | 48 | 38 | 0.0 | 1.0 | 0.00 | 0.13 | 0.00 | 99 | 1016.4 |
| 20260505013303 | 48 | 38 | 0.0 | 1.0 | 0.00 | 0.13 | 0.00 | 99 | 1016.5 |
| 20260505013203 | 48 | 38 | 0.0 | 1.0 | 0.00 | 0.13 | 0.00 | 99 | 1016.5 |
| 20260505013103 | 48 | 38 | 0.0 | 1.0 | 0.00 | 0.13 | 0.00 | 99 | 1016.5 |
| 20260505013003 | 48 | 38 | 0.0 | 1.0 | 0.00 | 0.13 | 0.00 | 99 | 1016.5 |
| 20260505012903 | 48 | 38 | 0.0 | 1.0 | 0.00 | 0.13 | 0.00 | 99 | 1016.5 |
| 20260505012803 | 48 | 38 | 0.0 | 1.0 | 0.00 | 0.13 | 0.00 | 99 | 1016.7 |
| 20260505012703 | 48 | 38 | 0.0 | 1.0 | 0.00 | 0.13 | 0.00 | 99 | 1016.5 |
| 20260505012603 | 48 | 38 | 0.0 | 1.0 | 0.00 | 0.13 | 0.00 | 99 | 1016.6 |
| 20260505012504 | 48 | 39 | 0.0 | 1.0 | 0.00 | 0.13 | 0.00 | 99 | 1016.4 |
| 20260505012403 | 48 | 38 | 0.0 | 1.0 | 0.00 | 0.13 | 0.00 | 99 | 1016.6 |
| 20260505012324 | 48 | 38 | 0.0 | 1.0 | 0.00 | 0.13 | 0.00 | 99 | 1016.6 |
| 20260505012203 | 48 | 43 | 0.0 | 1.0 | 0.00 | 0.13 | 0.00 | 99 | 1016.6 |
| 20260505012103 | 48 | 43 | 0.0 | 1.0 | 0.00 | 0.13 | 0.00 | 99 | 1016.6 |
| 20260505012003 | 48 | 43 | 0.0 | 1.0 | 0.00 | 0.13 | 0.00 | 99 | 1016.6 |
| 20260505011924 | 48 | 42 | 0.0 | 1.0 | 0.00 | 0.13 | 0.00 | 99 | 1016.5 |
| 20260505011803 | 48 | 42 | 0.0 | 1.0 | 0.00 | 0.13 | 0.00 | 99 | 1016.6 |
| 20260505011703 | 48 | 42 | 0.0 | 1.0 | 0.00 | 0.13 | 0.00 | 99 | 1016.4 |
| 20260505011624 | 48 | 41 | 1.0 | 2.0 | 0.00 | 0.13 | 0.00 | 99 | 1016.6 |
| 20260505011503 | 48 | 41 | 1.0 | 2.0 | 0.00 | 0.13 | 0.00 | 99 | 1016.5 |
| 20260505011424 | 48 | 40 | 1.0 | 2.0 | 0.00 | 0.13 | 0.00 | 99 | 1016.6 |
| 20260505011303 | 48 | 41 | 0.0 | 2.0 | 0.00 | 0.13 | 0.00 | 99 | 1016.6 |
| 20260505011203 | 48 | 41 | 1.0 | 2.0 | 0.00 | 0.13 | 0.00 | 99 | 1016.6 |
| 20260505011103 | 48 | 39 | 0.0 | 2.0 | 0.00 | 0.13 | 0.00 | 99 | 1016.5 |
| 20260505011003 | 48 | 38 | 1.0 | 2.0 | 0.00 | 0.13 | 0.00 | 99 | 1016.4 |
| 20260505010903 | 48 | 38 | 0.0 | 2.0 | 0.00 | 0.13 | 0.00 | 99 | 1016.6 |
| 20260505010803 | 48 | 38 | 0.0 | 2.0 | 0.00 | 0.13 | 0.00 | 99 | 1016.6 |
| 20260505010703 | 48 | 38 | 0.0 | 2.0 | 0.00 | 0.13 | 0.00 | 99 | 1016.6 |
| 20260505010604 | 48 | 38 | 1.0 | 2.0 | 0.00 | 0.13 | 0.00 | 99 | 1016.6 |
| 20260505010503 | 48 | 38 | 0.0 | 1.0 | 0.00 | 0.13 | 0.00 | 99 | 1016.7 |
| 20260505010403 | 48 | 39 | 0.0 | 1.0 | 0.00 | 0.13 | 0.00 | 99 | 1016.6 |
| 20260505010303 | 48 | 39 | 0.0 | 1.0 | 0.00 | 0.13 | 0.00 | 99 | 1016.5 |
| 20260505010203 | 48 | 38 | 0.0 | 1.0 | 0.00 | 0.13 | 0.00 | 99 | 1016.7 |
| 20260505010103 | 48 | 37 | 0.0 | 1.0 | 0.00 | 0.13 | 0.00 | 99 | 1016.5 |
| 20260505010003 | 48 | 38 | 0.0 | 1.0 | 0.00 | 0.13 | 0.00 | 99 | 1016.6 |
| 20260505005903 | 48 | 40 | 0.0 | 1.0 | 0.00 | 0.13 | 0.00 | 99 | 1016.6 |
| 20260505005803 | 48 | 42 | 0.0 | 1.0 | 0.00 | 0.13 | 0.00 | 99 | 1016.7 |
| 20260505005703 | 48 | 41 | 0.0 | 1.0 | 0.00 | 0.13 | 0.00 | 99 | 1016.5 |
| 20260505005603 | 48 | 41 | 0.0 | 1.0 | 0.00 | 0.13 | 0.00 | 99 | 1016.8 |
| 20260505005524 | 48 | 41 | 0.0 | 1.0 | 0.00 | 0.13 | 0.00 | 99 | 1016.8 |
| 20260505005403 | 48 | 43 | 1.0 | 2.0 | 0.00 | 0.13 | 0.00 | 99 | 1016.8 |
| 20260505005324 | 48 | 43 | 1.0 | 2.0 | 0.00 | 0.13 | 0.00 | 99 | 1016.8 |
| 20260505005224 | 48 | 43 | 1.0 | 2.0 | 0.00 | 0.13 | 0.00 | 99 | 1016.7 |
| 20260505005103 | 48 | 43 | 1.0 | 2.0 | 0.00 | 0.13 | 0.00 | 99 | 1016.7 |
| 20260505005024 | 48 | 46 | 1.0 | 2.0 | 0.00 | 0.13 | 0.00 | 99 | 1016.7 |
| 20260505004903 | 48 | 45 | 1.0 | 2.0 | 0.00 | 0.13 | 0.00 | 99 | 1016.8 |
| 20260505004824 | 48 | 45 | 1.0 | 2.0 | 0.00 | 0.13 | 0.00 | 99 | 1016.8 |
| 20260505004704 | 48 | 44 | 1.0 | 2.0 | 0.00 | 0.13 | 0.00 | 99 | 1016.8 |
| 20260505004624 | 48 | 45 | 1.0 | 2.0 | 0.00 | 0.13 | 0.00 | 99 | 1016.9 |
| 20260505004524 | 48 | 50 | 1.0 | 2.0 | 0.00 | 0.13 | 0.00 | 99 | 1016.8 |
| 20260505004403 | 48 | 52 | 1.0 | 2.0 | 0.00 | 0.13 | 0.00 | 99 | 1016.7 |
| 20260505004303 | 48 | 51 | 1.0 | 2.0 | 0.00 | 0.13 | 0.00 | 99 | 1016.9 |
| 20260505004224 | 48 | 51 | 1.0 | 2.0 | 0.00 | 0.13 | 0.00 | 99 | 1016.9 |
| 20260505004124 | 48 | 50 | 1.0 | 2.0 | 0.00 | 0.13 | 0.00 | 99 | 1016.8 |
| 20260505004003 | 48 | 51 | 1.0 | 2.0 | 0.00 | 0.13 | 0.00 | 99 | 1016.8 |
| 20260505003903 | 48 | 48 | 1.0 | 2.0 | 0.00 | 0.13 | 0.00 | 99 | 1016.8 |
| 20260505003803 | 48 | 48 | 1.0 | 2.0 | 0.00 | 0.13 | 0.00 | 99 | 1016.7 |
| 20260505003724 | 48 | 48 | 1.0 | 2.0 | 0.00 | 0.13 | 0.00 | 99 | 1016.7 |
| 20260505003603 | 48 | 49 | 1.0 | 2.0 | 0.00 | 0.13 | 0.00 | 99 | 1016.9 |
| 20260505003503 | 48 | 49 | 1.0 | 2.0 | 0.00 | 0.13 | 0.00 | 99 | 1016.9 |
| 20260505003424 | 48 | 42 | 0.0 | 1.0 | 0.00 | 0.13 | 0.00 | 99 | 1016.9 |
| 20260505003303 | 48 | 41 | 0.0 | 1.0 | 0.00 | 0.13 | 0.00 | 99 | 1017.0 |
| 20260505003203 | 48 | 40 | 0.0 | 1.0 | 0.00 | 0.13 | 0.00 | 99 | 1016.9 |
| 20260505003103 | 48 | 41 | 0.0 | 1.0 | 0.00 | 0.13 | 0.00 | 99 | 1016.8 |
| 20260505003003 | 48 | 38 | 0.0 | 1.0 | 0.00 | 0.13 | 0.00 | 99 | 1017.0 |
| 20260505002903 | 48 | 38 | 0.0 | 1.0 | 0.00 | 0.13 | 0.00 | 99 | 1016.9 |
| 20260505002803 | 48 | 38 | 0.0 | 1.0 | 0.00 | 0.13 | 0.00 | 99 | 1016.9 |
| 20260505002703 | 48 | 38 | 0.0 | 1.0 | 0.00 | 0.13 | 0.00 | 99 | 1016.9 |
| 20260505002603 | 48 | 38 | 0.0 | 1.0 | 0.00 | 0.13 | 0.00 | 99 | 1016.9 |
| 20260505002503 | 48 | 38 | 0.0 | 1.0 | 0.00 | 0.13 | 0.00 | 99 | 1016.8 |
| 20260505002403 | 48 | 38 | 0.0 | 1.0 | 0.00 | 0.13 | 0.00 | 99 | 1016.9 |
| 20260505002304 | 48 | 38 | 0.0 | 1.0 | 0.00 | 0.13 | 0.00 | 99 | 1016.8 |
| 20260505002203 | 48 | 38 | 0.0 | 1.0 | 0.00 | 0.13 | 0.00 | 99 | 1016.8 |
| 20260505002103 | 48 | 38 | 0.0 | 1.0 | 0.00 | 0.13 | 0.00 | 99 | 1016.9 |
| 20260505002003 | 48 | 38 | 0.0 | 1.0 | 0.00 | 0.13 | 0.00 | 99 | 1016.8 |
| 20260505001903 | 48 | 38 | 0.0 | 1.0 | 0.00 | 0.13 | 0.00 | 99 | 1017.0 |
| 20260505001803 | 48 | 38 | 0.0 | 1.0 | 0.00 | 0.13 | 0.00 | 99 | 1017.0 |
| 20260505001703 | 48 | 38 | 0.0 | 1.0 | 0.00 | 0.13 | 0.00 | 99 | 1016.9 |
| 20260505001503 | 48 | 39 | 0.0 | 1.0 | 0.00 | 0.13 | 0.00 | 99 | 1016.8 |
| 20260505001403 | 48 | 39 | 0.0 | 1.0 | 0.00 | 0.13 | 0.00 | 99 | 1016.6 |
| 20260505001303 | 48 | 40 | 0.0 | 1.0 | 0.00 | 0.13 | 0.00 | 99 | 1017.0 |
| 20260505001202 | 48 | 40 | 0.0 | 1.0 | 0.00 | 0.13 | 0.00 | 99 | 1017.0 |
| 20260505001103 | 48 | 40 | 0.0 | 1.0 | 0.00 | 0.13 | 0.00 | 99 | 1016.9 |
| 20260505001024 | 48 | 40 | 0.0 | 1.0 | 0.00 | 0.13 | 0.00 | 99 | 1016.9 |
| 20260505000902 | 48 | 40 | 1.0 | 1.0 | 0.00 | 0.13 | 0.00 | 99 | 1016.9 |
| 20260505000824 | 48 | 40 | 1.0 | 1.0 | 0.00 | 0.13 | 0.00 | 99 | 1017.0 |
| 20260505000702 | 48 | 40 | 1.0 | 1.0 | 0.00 | 0.13 | 0.00 | 99 | 1017.0 |
| 20260505000603 | 48 | 40 | 1.0 | 1.0 | 0.00 | 0.13 | 0.00 | 99 | 1017.0 |
| 20260505000503 | 48 | 40 | 1.0 | 1.0 | 0.00 | 0.13 | 0.00 | 99 | 1017.1 |
| 20260505000405 | 48 | 42 | 1.0 | 1.0 | 0.00 | 0.13 | 0.00 | 99 | 1016.9 |
| 20260505000303 | 48 | 42 | 1.0 | 1.0 | 0.00 | 0.13 | 0.00 | 99 | 1017.0 |
| 20260505000204 | 48 | 42 | 1.0 | 1.0 | 0.00 | 0.13 | 0.00 | 99 | 1017.0 |
| 20260505000003 | 48 | 42 | 1.0 | 1.0 | 0.00 | 0.13 | 0.00 | 99 | 1016.8 |
| 20260504235903 | 48 | 42 | 0.0 | 1.0 | 0.00 | 0.13 | 0.00 | 99 | 1017.0 |
| 20260504235803 | 48 | 42 | 1.0 | 1.0 | 0.00 | 0.13 | 0.00 | 99 | 1017.0 |
| 20260504235703 | 48 | 43 | 1.0 | 1.0 | 0.00 | 0.13 | 0.00 | 99 | 1017.0 |
| 20260504235624 | 48 | 43 | 1.0 | 1.0 | 0.00 | 0.13 | 0.00 | 99 | 1017.0 |
| 20260504235503 | 48 | 43 | 1.0 | 1.0 | 0.00 | 0.13 | 0.00 | 99 | 1017.1 |
| 20260504235424 | 48 | 43 | 1.0 | 1.0 | 0.00 | 0.13 | 0.00 | 99 | 1016.9 |
| 20260504235304 | 48 | 42 | 0.0 | 1.0 | 0.00 | 0.13 | 0.00 | 99 | 1017.0 |
| 20260504235203 | 48 | 42 | 0.0 | 1.0 | 0.00 | 0.13 | 0.00 | 99 | 1016.8 |
| 20260504235103 | 48 | 42 | 0.0 | 1.0 | 0.00 | 0.13 | 0.00 | 99 | 1017.0 |
| 20260504235003 | 48 | 42 | 0.0 | 1.0 | 0.00 | 0.13 | 0.00 | 99 | 1017.1 |
| 20260504234903 | 48 | 42 | 0.0 | 1.0 | 0.00 | 0.13 | 0.00 | 99 | 1016.9 |
| 20260504234803 | 48 | 42 | 0.0 | 1.0 | 0.00 | 0.13 | 0.00 | 99 | 1017.0 |
| 20260504234724 | 48 | 42 | 0.0 | 1.0 | 0.00 | 0.13 | 0.00 | 99 | 1017.0 |
| 20260504234603 | 48 | 42 | 0.0 | 1.0 | 0.00 | 0.13 | 0.00 | 99 | 1017.0 |
| 20260504234503 | 48 | 42 | 0.0 | 1.0 | 0.00 | 0.13 | 0.00 | 99 | 1017.0 |
| 20260504234424 | 48 | 42 | 0.0 | 1.0 | 0.00 | 0.13 | 0.00 | 99 | 1017.0 |
| 20260504234303 | 48 | 42 | 0.0 | 1.0 | 0.00 | 0.13 | 0.00 | 99 | 1016.8 |
| 20260504234203 | 48 | 41 | 0.0 | 1.0 | 0.00 | 0.13 | 0.00 | 99 | 1017.1 |
| 20260504234103 | 48 | 41 | 0.0 | 1.0 | 0.00 | 0.13 | 0.00 | 99 | 1017.0 |
| 20260504234003 | 48 | 42 | 0.0 | 1.0 | 0.00 | 0.13 | 0.00 | 99 | 1016.9 |
| 20260504233903 | 48 | 41 | 0.0 | 1.0 | 0.00 | 0.13 | 0.00 | 99 | 1016.8 |
| 20260504233802 | 48 | 41 | 0.0 | 1.0 | 0.00 | 0.13 | 0.00 | 99 | 1016.9 |
| 20260504233703 | 48 | 41 | 0.0 | 1.0 | 0.00 | 0.13 | 0.00 | 99 | 1016.9 |
| 20260504233603 | 48 | 41 | 0.0 | 1.0 | 0.00 | 0.13 | 0.00 | 99 | 1016.9 |
| 20260504233503 | 48 | 41 | 0.0 | 1.0 | 0.00 | 0.13 | 0.00 | 99 | 1016.9 |
| 20260504233403 | 48 | 41 | 0.0 | 1.0 | 0.00 | 0.13 | 0.00 | 99 | 1017.1 |
| 20260504233324 | 48 | 41 | 0.0 | 1.0 | 0.00 | 0.13 | 0.00 | 99 | 1017.1 |
| 20260504233203 | 48 | 42 | 0.0 | 1.0 | 0.00 | 0.13 | 0.00 | 99 | 1017.1 |
| 20260504233103 | 48 | 42 | 1.0 | 1.0 | 0.00 | 0.13 | 0.00 | 99 | 1017.0 |
| 20260504233024 | 48 | 42 | 1.0 | 1.0 | 0.00 | 0.13 | 0.00 | 99 | 1017.0 |
| 20260504232903 | 48 | 42 | 0.0 | 1.0 | 0.00 | 0.13 | 0.00 | 99 | 1017.0 |
| 20260504232803 | 48 | 42 | 0.0 | 1.0 | 0.00 | 0.13 | 0.00 | 99 | 1017.0 |
| 20260504232703 | 48 | 42 | 0.0 | 1.0 | 0.00 | 0.13 | 0.00 | 98 | 1017.1 |
| 20260504232624 | 48 | 42 | 0.0 | 1.0 | 0.00 | 0.13 | 0.00 | 99 | 1017.0 |
| 20260504232503 | 48 | 42 | 0.0 | 1.0 | 0.00 | 0.13 | 0.00 | 98 | 1017.0 |
| 20260504232424 | 48 | 42 | 0.0 | 1.0 | 0.00 | 0.13 | 0.00 | 98 | 1017.1 |
| 20260504232304 | 48 | 42 | 0.0 | 1.0 | 0.00 | 0.13 | 0.00 | 98 | 1017.0 |
| 20260504232202 | 48 | 42 | 0.0 | 1.0 | 0.00 | 0.13 | 0.00 | 98 | 1017.1 |
| 20260504232103 | 48 | 42 | 0.0 | 1.0 | 0.00 | 0.13 | 0.00 | 98 | 1017.0 |
| 20260504232003 | 48 | 44 | 0.0 | 1.0 | 0.00 | 0.13 | 0.00 | 98 | 1017.2 |
| 20260504231903 | 48 | 43 | 0.0 | 1.0 | 0.00 | 0.13 | 0.00 | 98 | 1017.2 |
| 20260504231803 | 48 | 43 | 0.0 | 1.0 | 0.00 | 0.13 | 0.00 | 98 | 1017.0 |
| 20260504231703 | 48 | 43 | 0.0 | 1.0 | 0.00 | 0.13 | 0.00 | 98 | 1017.2 |
| 20260504231624 | 48 | 43 | 0.0 | 1.0 | 0.00 | 0.13 | 0.00 | 98 | 1017.2 |
| 20260504231503 | 48 | 43 | 0.0 | 1.0 | 0.00 | 0.13 | 0.00 | 98 | 1017.1 |
| 20260504231403 | 48 | 42 | 1.0 | 1.0 | 0.00 | 0.13 | 0.00 | 98 | 1017.2 |
| 20260504231303 | 48 | 42 | 0.0 | 1.0 | 0.00 | 0.13 | 0.00 | 98 | 1017.1 |
| 20260504231203 | 48 | 41 | 1.0 | 1.0 | 0.00 | 0.13 | 0.00 | 98 | 1017.2 |
| 20260504231102 | 48 | 41 | 1.0 | 1.0 | 0.00 | 0.13 | 0.00 | 98 | 1017.2 |
| 20260504231024 | 48 | 41 | 0.0 | 1.0 | 0.00 | 0.13 | 0.00 | 98 | 1017.2 |
| 20260504230924 | 48 | 40 | 0.0 | 1.0 | 0.00 | 0.13 | 0.00 | 98 | 1017.1 |
| 20260504230803 | 48 | 40 | 0.0 | 1.0 | 0.00 | 0.13 | 0.00 | 98 | 1017.1 |
| 20260504230724 | 48 | 39 | 0.0 | 1.0 | 0.00 | 0.13 | 0.00 | 98 | 1017.1 |
| 20260504230624 | 48 | 39 | 0.0 | 1.0 | 0.00 | 0.13 | 0.00 | 98 | 1017.0 |
| 20260504230503 | 48 | 40 | 0.0 | 1.0 | 0.00 | 0.13 | 0.00 | 98 | 1017.0 |
| 20260504230403 | 48 | 40 | 0.0 | 1.0 | 0.00 | 0.13 | 0.00 | 98 | 1017.2 |
| 20260504230303 | 48 | 41 | 0.0 | 1.0 | 0.00 | 0.13 | 0.00 | 98 | 1017.1 |
| 20260504230203 | 48 | 41 | 0.0 | 1.0 | 0.00 | 0.13 | 0.00 | 98 | 1017.0 |
| 20260504230003 | 48 | 41 | 0.0 | 1.0 | 0.00 | 0.13 | 0.00 | 98 | 1017.2 |
| 20260504225903 | 48 | 41 | 0.0 | 1.0 | 0.00 | 0.13 | 0.00 | 98 | 1017.1 |
| 20260504225803 | 48 | 40 | 0.0 | 1.0 | 0.00 | 0.13 | 0.00 | 98 | 1017.2 |
| 20260504225703 | 48 | 40 | 0.0 | 1.0 | 0.00 | 0.13 | 0.00 | 98 | 1017.2 |
| 20260504225603 | 48 | 39 | 0.0 | 1.0 | 0.00 | 0.13 | 0.00 | 98 | 1017.1 |
| 20260504225524 | 48 | 39 | 0.0 | 1.0 | 0.00 | 0.13 | 0.00 | 98 | 1017.1 |
| 20260504225403 | 48 | 38 | 0.0 | 1.0 | 0.00 | 0.13 | 0.00 | 98 | 1017.2 |
| 20260504225304 | 48 | 38 | 0.0 | 1.0 | 0.00 | 0.13 | 0.00 | 98 | 1017.0 |
| 20260504225203 | 48 | 38 | 0.0 | 1.0 | 0.00 | 0.13 | 0.00 | 98 | 1017.0 |
| 20260504225103 | 48 | 38 | 0.0 | 1.0 | 0.00 | 0.13 | 0.00 | 98 | 1017.1 |
| 20260504225003 | 48 | 38 | 0.0 | 1.0 | 0.00 | 0.13 | 0.00 | 98 | 1017.2 |
| 20260504224903 | 48 | 38 | 0.0 | 1.0 | 0.00 | 0.13 | 0.00 | 98 | 1017.1 |
| 20260504224803 | 48 | 38 | 0.0 | 1.0 | 0.00 | 0.13 | 0.00 | 98 | 1017.1 |
| 20260504224703 | 48 | 38 | 0.0 | 1.0 | 0.00 | 0.13 | 0.00 | 98 | 1017.0 |
| 20260504224624 | 48 | 38 | 0.0 | 1.0 | 0.00 | 0.13 | 0.00 | 98 | 1017.2 |
| 20260504224503 | 48 | 38 | 0.0 | 1.0 | 0.00 | 0.13 | 0.00 | 98 | 1017.3 |
| 20260504224403 | 48 | 38 | 0.0 | 1.0 | 0.00 | 0.13 | 0.00 | 98 | 1017.0 |
| 20260504224303 | 48 | 38 | 0.0 | 1.0 | 0.00 | 0.13 | 0.00 | 98 | 1017.1 |
| 20260504224203 | 48 | 38 | 0.0 | 1.0 | 0.00 | 0.13 | 0.00 | 98 | 1017.1 |
| 20260504224103 | 48 | 38 | 0.0 | 1.0 | 0.00 | 0.13 | 0.00 | 98 | 1017.2 |
| 20260504224024 | 48 | 38 | 0.0 | 1.0 | 0.00 | 0.13 | 0.00 | 98 | 1017.2 |
| 20260504223903 | 48 | 38 | 0.0 | 1.0 | 0.00 | 0.13 | 0.00 | 98 | 1017.0 |
| 20260504223803 | 48 | 38 | 0.0 | 1.0 | 0.00 | 0.13 | 0.00 | 98 | 1017.2 |
| 20260504223724 | 48 | 38 | 0.0 | 1.0 | 0.00 | 0.13 | 0.00 | 98 | 1017.2 |
| 20260504223603 | 48 | 38 | 0.0 | 1.0 | 0.00 | 0.13 | 0.00 | 98 | 1017.2 |
| 20260504223503 | 49 | 38 | 0.0 | 1.0 | 0.00 | 0.13 | 0.00 | 98 | 1017.4 |
| 20260504223403 | 49 | 38 | 0.0 | 1.0 | 0.00 | 0.13 | 0.00 | 98 | 1017.4 |
| 20260504223324 | 49 | 38 | 0.0 | 1.0 | 0.00 | 0.13 | 0.00 | 98 | 1017.2 |
| 20260504223203 | 49 | 38 | 0.0 | 1.0 | 0.00 | 0.13 | 0.00 | 98 | 1017.0 |
| 20260504223103 | 49 | 38 | 0.0 | 1.0 | 0.00 | 0.13 | 0.00 | 98 | 1017.2 |
| 20260504223003 | 49 | 38 | 0.0 | 1.0 | 0.00 | 0.13 | 0.00 | 98 | 1017.3 |
| 20260504222903 | 49 | 38 | 0.0 | 1.0 | 0.00 | 0.13 | 0.00 | 98 | 1017.2 |
| 20260504222803 | 49 | 38 | 0.0 | 1.0 | 0.00 | 0.13 | 0.00 | 98 | 1017.1 |
| 20260504222724 | 49 | 38 | 0.0 | 1.0 | 0.00 | 0.13 | 0.00 | 98 | 1017.1 |
| 20260504222603 | 49 | 38 | 0.0 | 1.0 | 0.00 | 0.13 | 0.00 | 98 | 1017.2 |
| 20260504222503 | 49 | 38 | 0.0 | 1.0 | 0.00 | 0.13 | 0.00 | 98 | 1017.2 |
| 20260504222424 | 49 | 38 | 0.0 | 1.0 | 0.00 | 0.13 | 0.00 | 98 | 1017.2 |
| 20260504222304 | 49 | 38 | 0.0 | 1.0 | 0.00 | 0.13 | 0.00 | 98 | 1017.1 |
| 20260504222203 | 49 | 38 | 0.0 | 1.0 | 0.00 | 0.13 | 0.00 | 98 | 1017.2 |
| 20260504222103 | 49 | 38 | 0.0 | 1.0 | 0.00 | 0.13 | 0.00 | 98 | 1017.1 |
| 20260504222003 | 49 | 38 | 0.0 | 1.0 | 0.00 | 0.13 | 0.00 | 98 | 1017.1 |
| 20260504221902 | 49 | 38 | 0.0 | 1.0 | 0.00 | 0.13 | 0.00 | 98 | 1017.3 |
| 20260504221824 | 49 | 39 | 0.0 | 1.0 | 0.00 | 0.13 | 0.00 | 98 | 1017.2 |
| 20260504221724 | 49 | 39 | 0.0 | 1.0 | 0.00 | 0.13 | 0.00 | 98 | 1017.3 |
| 20260504221624 | 49 | 39 | 0.0 | 1.0 | 0.00 | 0.13 | 0.00 | 98 | 1017.3 |
| 20260504221503 | 49 | 39 | 0.0 | 1.0 | 0.00 | 0.13 | 0.00 | 98 | 1017.2 |
| 20260504221403 | 49 | 39 | 0.0 | 1.0 | 0.00 | 0.13 | 0.00 | 98 | 1017.3 |
| 20260504221324 | 49 | 39 | 0.0 | 1.0 | 0.00 | 0.13 | 0.00 | 98 | 1017.2 |
| 20260504221203 | 49 | 40 | 0.0 | 1.0 | 0.00 | 0.13 | 0.00 | 98 | 1017.3 |
| 20260504221124 | 49 | 40 | 0.0 | 1.0 | 0.00 | 0.13 | 0.00 | 98 | 1017.1 |
| 20260504221003 | 49 | 39 | 0.0 | 1.0 | 0.00 | 0.13 | 0.00 | 98 | 1017.3 |
| 20260504220903 | 49 | 39 | 0.0 | 1.0 | 0.00 | 0.13 | 0.00 | 98 | 1017.4 |
| 20260504220803 | 49 | 39 | 0.0 | 1.0 | 0.00 | 0.13 | 0.00 | 98 | 1017.1 |
| 20260504220724 | 49 | 39 | 0.0 | 1.0 | 0.00 | 0.13 | 0.00 | 98 | 1017.1 |
| 20260504220603 | 49 | 39 | 0.0 | 1.0 | 0.00 | 0.13 | 0.00 | 98 | 1017.1 |
| 20260504220503 | 49 | 39 | 0.0 | 1.0 | 0.00 | 0.13 | 0.00 | 98 | 1017.3 |
| 20260504220403 | 49 | 39 | 0.0 | 1.0 | 0.00 | 0.13 | 0.00 | 98 | 1017.4 |
| 20260504220303 | 49 | 39 | 0.0 | 1.0 | 0.00 | 0.13 | 0.00 | 98 | 1017.3 |
| 20260504220203 | 49 | 39 | 0.0 | 1.0 | 0.00 | 0.13 | 0.00 | 98 | 1017.2 |
| 20260504220004 | 49 | 39 | 0.0 | 1.0 | 0.00 | 0.13 | 0.00 | 98 | 1017.3 |
| 20260504215903 | 49 | 38 | 0.0 | 1.0 | 0.00 | 0.13 | 0.13 | 98 | 1017.2 |
| 20260504215803 | 49 | 38 | 0.0 | 1.0 | 0.00 | 0.13 | 0.13 | 98 | 1017.5 |
| 20260504215724 | 49 | 38 | 0.0 | 1.0 | 0.00 | 0.13 | 0.13 | 98 | 1017.3 |
| 20260504215603 | 49 | 38 | 0.0 | 1.0 | 0.00 | 0.13 | 0.13 | 98 | 1017.3 |
| 20260504215503 | 49 | 38 | 0.0 | 1.0 | 0.00 | 0.13 | 0.13 | 98 | 1017.4 |
| 20260504215403 | 49 | 38 | 0.0 | 1.0 | 0.00 | 0.13 | 0.13 | 98 | 1017.4 |
| 20260504215304 | 49 | 38 | 0.0 | 1.0 | 0.00 | 0.13 | 0.13 | 98 | 1017.4 |
| 20260504215224 | 50 | 38 | 0.0 | 1.0 | 0.00 | 0.13 | 0.13 | 98 | 1017.5 |
| 20260504215124 | 50 | 38 | 0.0 | 1.0 | 0.00 | 0.13 | 0.13 | 98 | 1017.3 |
| 20260504215003 | 49 | 38 | 0.0 | 1.0 | 0.00 | 0.13 | 0.13 | 98 | 1017.4 |
| 20260504214903 | 49 | 0 | 0.0 | 0.0 | 0.00 | 0.13 | 0.13 | 98 | 1017.3 |
| 20260504214824 | 49 | 0 | 0.0 | 0.0 | 0.00 | 0.13 | 0.13 | 98 | 1017.3 |
| 20260504214703 | 49 | 0 | 0.0 | 0.0 | 0.00 | 0.13 | 0.13 | 98 | 1017.4 |
| 20260504214624 | 49 | 0 | 0.0 | 0.0 | 0.00 | 0.13 | 0.13 | 98 | 1017.3 |
| 20260504214503 | 49 | 0 | 0.0 | 0.0 | 0.00 | 0.13 | 0.13 | 98 | 1017.6 |
| 20260504214403 | 50 | 46 | 0.0 | 1.0 | 0.00 | 0.13 | 0.13 | 98 | 1017.3 |
| 20260504214303 | 50 | 43 | 0.0 | 1.0 | 0.00 | 0.13 | 0.13 | 98 | 1017.5 |
| 20260504214203 | 50 | 43 | 0.0 | 1.0 | 0.00 | 0.13 | 0.13 | 97 | 1017.5 |
| 20260504214103 | 50 | 43 | 0.0 | 1.0 | 0.00 | 0.13 | 0.13 | 97 | 1017.4 |
| 20260504214024 | 50 | 42 | 0.0 | 1.0 | 0.00 | 0.13 | 0.13 | 97 | 1017.5 |
| 20260504213903 | 50 | 42 | 0.0 | 1.0 | 0.00 | 0.13 | 0.13 | 97 | 1017.5 |
| 20260504213824 | 50 | 42 | 0.0 | 1.0 | 0.00 | 0.13 | 0.13 | 97 | 1017.5 |
| 20260504213724 | 50 | 41 | 0.0 | 1.0 | 0.00 | 0.13 | 0.13 | 97 | 1017.4 |
| 20260504213603 | 50 | 41 | 0.0 | 1.0 | 0.00 | 0.13 | 0.13 | 97 | 1017.4 |
| 20260504213503 | 50 | 42 | 1.0 | 1.0 | 0.00 | 0.13 | 0.13 | 97 | 1017.4 |
| 20260504213403 | 50 | 42 | 1.0 | 1.0 | 0.00 | 0.13 | 0.13 | 97 | 1017.5 |
| 20260504213303 | 50 | 42 | 1.0 | 1.0 | 0.00 | 0.13 | 0.13 | 97 | 1017.5 |
| 20260504213203 | 50 | 43 | 1.0 | 2.0 | 0.00 | 0.13 | 0.13 | 97 | 1017.3 |
| 20260504213103 | 50 | 42 | 1.0 | 2.0 | 0.00 | 0.13 | 0.13 | 97 | 1017.3 |
| 20260504213003 | 50 | 43 | 1.0 | 2.0 | 0.00 | 0.13 | 0.13 | 97 | 1017.4 |
| 20260504212903 | 50 | 42 | 1.0 | 2.0 | 0.00 | 0.13 | 0.13 | 97 | 1017.4 |
| 20260504212803 | 50 | 43 | 1.0 | 2.0 | 0.00 | 0.13 | 0.13 | 97 | 1017.5 |
| 20260504212703 | 50 | 43 | 1.0 | 2.0 | 0.00 | 0.13 | 0.13 | 97 | 1017.4 |
| 20260504212603 | 50 | 43 | 1.0 | 2.0 | 0.00 | 0.13 | 0.13 | 97 | 1017.4 |
| 20260504212403 | 50 | 41 | 1.0 | 2.0 | 0.00 | 0.13 | 0.13 | 97 | 1017.4 |
| 20260504212304 | 50 | 42 | 1.0 | 2.0 | 0.00 | 0.13 | 0.13 | 97 | 1017.4 |
| 20260504212203 | 50 | 37 | 1.0 | 2.0 | 0.00 | 0.13 | 0.13 | 97 | 1017.4 |
| 20260504212103 | 50 | 31 | 1.0 | 1.0 | 0.00 | 0.13 | 0.13 | 97 | 1017.4 |
| 20260504212024 | 50 | 26 | 1.0 | 1.0 | 0.00 | 0.13 | 0.13 | 97 | 1017.4 |
| 20260504211924 | 50 | 19 | 1.0 | 1.0 | 0.00 | 0.13 | 0.13 | 97 | 1017.6 |
| 20260504211803 | 50 | 18 | 1.0 | 1.0 | 0.00 | 0.13 | 0.13 | 97 | 1017.5 |
| 20260504211703 | 50 | 11 | 1.0 | 1.0 | 0.00 | 0.13 | 0.13 | 97 | 1017.5 |
| 20260504211603 | 50 | 7 | 1.0 | 1.0 | 0.00 | 0.13 | 0.13 | 97 | 1017.7 |
| 20260504211503 | 50 | 3 | 1.0 | 1.0 | 0.00 | 0.13 | 0.13 | 97 | 1017.5 |
| 20260504211403 | 50 | 358 | 0.0 | 1.0 | 0.00 | 0.13 | 0.13 | 97 | 1017.5 |
| 20260504211324 | 50 | 358 | 0.0 | 1.0 | 0.00 | 0.13 | 0.13 | 97 | 1017.5 |
| 20260504211203 | 50 | 348 | 0.0 | 1.0 | 0.00 | 0.13 | 0.13 | 97 | 1017.6 |
| 20260504211103 | 50 | 348 | 0.0 | 1.0 | 0.00 | 0.13 | 0.13 | 97 | 1017.5 |
| 20260504211003 | 50 | 348 | 0.0 | 1.0 | 0.00 | 0.13 | 0.13 | 97 | 1017.4 |
| 20260504210903 | 50 | 348 | 0.0 | 1.0 | 0.00 | 0.13 | 0.13 | 97 | 1017.6 |
| 20260504210803 | 50 | 348 | 0.0 | 1.0 | 0.00 | 0.13 | 0.13 | 97 | 1017.5 |
| 20260504210703 | 50 | 348 | 0.0 | 1.0 | 0.00 | 0.13 | 0.13 | 97 | 1017.6 |
| 20260504210624 | 50 | 0 | 0.0 | 0.0 | 0.00 | 0.13 | 0.13 | 97 | 1017.5 |
| 20260504210524 | 50 | 0 | 0.0 | 0.0 | 0.00 | 0.13 | 0.13 | 97 | 1017.7 |
| 20260504210403 | 50 | 0 | 0.0 | 0.0 | 0.00 | 0.13 | 0.13 | 97 | 1017.6 |
| 20260504210303 | 50 | 348 | 0.0 | 1.0 | 0.00 | 0.13 | 0.13 | 97 | 1017.4 |
| 20260504210203 | 50 | 348 | 0.0 | 1.0 | 0.00 | 0.13 | 0.13 | 97 | 1017.4 |
| 20260504210124 | 50 | 348 | 0.0 | 1.0 | 0.00 | 0.13 | 0.13 | 97 | 1017.4 |
| 20260504210003 | 50 | 348 | 0.0 | 1.0 | 0.00 | 0.13 | 0.13 | 97 | 1017.4 |
| 20260504205903 | 50 | 348 | 0.0 | 1.0 | 0.00 | 0.13 | 0.13 | 97 | 1017.5 |
| 20260504205803 | 50 | 348 | 0.0 | 1.0 | 0.00 | 0.13 | 0.13 | 97 | 1017.4 |
| 20260504205703 | 50 | 348 | 0.0 | 1.0 | 0.00 | 0.13 | 0.13 | 97 | 1017.5 |
| 20260504205603 | 50 | 348 | 0.0 | 1.0 | 0.00 | 0.13 | 0.13 | 97 | 1017.2 |
| 20260504205503 | 50 | 348 | 0.0 | 1.0 | 0.00 | 0.13 | 0.13 | 97 | 1017.2 |
| 20260504205403 | 50 | 348 | 0.0 | 1.0 | 0.00 | 0.13 | 0.13 | 97 | 1017.4 |
| 20260504205304 | 50 | 348 | 0.0 | 1.0 | 0.00 | 0.13 | 0.13 | 97 | 1017.5 |
| 20260504205203 | 50 | 348 | 0.0 | 1.0 | 0.00 | 0.13 | 0.13 | 97 | 1017.5 |
| 20260504205103 | 50 | 348 | 0.0 | 1.0 | 0.00 | 0.13 | 0.13 | 97 | 1017.5 |
| 20260504205003 | 50 | 348 | 0.0 | 1.0 | 0.00 | 0.13 | 0.13 | 97 | 1017.4 |
| 20260504204903 | 50 | 348 | 0.0 | 1.0 | 0.00 | 0.13 | 0.13 | 96 | 1017.3 |
| 20260504204803 | 50 | 348 | 0.0 | 1.0 | 0.00 | 0.13 | 0.13 | 96 | 1017.5 |
| 20260504204703 | 50 | 348 | 0.0 | 1.0 | 0.00 | 0.13 | 0.13 | 96 | 1017.5 |
| 20260504204603 | 50 | 348 | 0.0 | 1.0 | 0.00 | 0.13 | 0.13 | 96 | 1017.4 |
| 20260504204503 | 50 | 348 | 0.0 | 1.0 | 0.00 | 0.13 | 0.13 | 96 | 1017.5 |
| 20260504204403 | 50 | 348 | 0.0 | 1.0 | 0.00 | 0.13 | 0.13 | 96 | 1017.5 |
| 20260504204324 | 50 | 348 | 0.0 | 1.0 | 0.00 | 0.13 | 0.13 | 96 | 1017.3 |
| 20260504204203 | 50 | 348 | 0.0 | 1.0 | 0.00 | 0.13 | 0.13 | 96 | 1017.4 |
| 20260504204103 | 50 | 348 | 0.0 | 1.0 | 0.00 | 0.13 | 0.13 | 96 | 1017.4 |
| 20260504204024 | 50 | 0 | 0.0 | 0.0 | 0.01 | 0.13 | 0.13 | 96 | 1017.3 |
| 20260504203903 | 51 | 0 | 0.0 | 0.0 | 0.01 | 0.13 | 0.13 | 96 | 1017.4 |
| 20260504203824 | 51 | 0 | 0.0 | 0.0 | 0.01 | 0.13 | 0.13 | 96 | 1017.3 |
| 20260504203703 | 51 | 0 | 0.0 | 0.0 | 0.01 | 0.13 | 0.13 | 96 | 1017.4 |
| 20260504203603 | 51 | 0 | 0.0 | 0.0 | 0.01 | 0.13 | 0.13 | 96 | 1017.4 |
| 20260504203503 | 51 | 0 | 0.0 | 0.0 | 0.01 | 0.13 | 0.13 | 96 | 1017.4 |
| 20260504203403 | 51 | 0 | 0.0 | 0.0 | 0.01 | 0.13 | 0.13 | 96 | 1017.4 |
| 20260504203303 | 51 | 0 | 0.0 | 0.0 | 0.01 | 0.13 | 0.13 | 96 | 1017.2 |
| 20260504203203 | 51 | 0 | 0.0 | 0.0 | 0.01 | 0.13 | 0.13 | 96 | 1017.2 |
| 20260504203103 | 51 | 0 | 0.0 | 0.0 | 0.01 | 0.13 | 0.13 | 96 | 1017.4 |
| 20260504203024 | 51 | 0 | 0.0 | 0.0 | 0.01 | 0.13 | 0.13 | 96 | 1017.2 |
| 20260504202903 | 51 | 0 | 0.0 | 0.0 | 0.01 | 0.13 | 0.13 | 96 | 1017.3 |
| 20260504202824 | 51 | 0 | 0.0 | 0.0 | 0.01 | 0.13 | 0.13 | 96 | 1017.3 |
| 20260504202703 | 51 | 0 | 0.0 | 0.0 | 0.01 | 0.13 | 0.13 | 96 | 1017.1 |
| 20260504202603 | 51 | 0 | 0.0 | 0.0 | 0.01 | 0.13 | 0.13 | 96 | 1017.2 |
| 20260504202503 | 51 | 0 | 0.0 | 0.0 | 0.01 | 0.13 | 0.13 | 96 | 1017.2 |
| 20260504202403 | 51 | 0 | 0.0 | 0.0 | 0.01 | 0.13 | 0.13 | 96 | 1017.3 |
| 20260504202304 | 51 | 348 | 0.0 | 1.0 | 0.01 | 0.13 | 0.13 | 96 | 1017.2 |
| 20260504202224 | 51 | 348 | 0.0 | 1.0 | 0.01 | 0.13 | 0.13 | 96 | 1017.2 |
| 20260504202103 | 51 | 348 | 0.0 | 1.0 | 0.01 | 0.13 | 0.13 | 96 | 1017.3 |
| 20260504202003 | 51 | 348 | 0.0 | 1.0 | 0.01 | 0.13 | 0.13 | 96 | 1017.3 |
| 20260504201903 | 51 | 348 | 0.0 | 1.0 | 0.01 | 0.13 | 0.13 | 96 | 1017.1 |
| 20260504201803 | 51 | 348 | 0.0 | 1.0 | 0.01 | 0.13 | 0.13 | 96 | 1017.2 |
| 20260504201703 | 51 | 348 | 0.0 | 1.0 | 0.01 | 0.13 | 0.13 | 96 | 1017.1 |
| 20260504201603 | 51 | 348 | 0.0 | 1.0 | 0.01 | 0.13 | 0.13 | 96 | 1017.1 |
| 20260504201503 | 51 | 348 | 0.0 | 1.0 | 0.01 | 0.13 | 0.13 | 96 | 1017.2 |
| 20260504201403 | 51 | 348 | 0.0 | 1.0 | 0.01 | 0.13 | 0.13 | 96 | 1017.1 |
| 20260504201303 | 51 | 348 | 0.0 | 1.0 | 0.01 | 0.13 | 0.13 | 96 | 1017.1 |
| 20260504201203 | 51 | 348 | 0.0 | 1.0 | 0.01 | 0.13 | 0.13 | 96 | 1017.1 |
| 20260504201103 | 51 | 348 | 0.0 | 1.0 | 0.01 | 0.13 | 0.13 | 96 | 1017.1 |
| 20260504201003 | 51 | 348 | 0.0 | 1.0 | 0.01 | 0.13 | 0.13 | 96 | 1017.0 |
| 20260504200903 | 51 | 348 | 0.0 | 1.0 | 0.01 | 0.13 | 0.13 | 96 | 1017.2 |
| 20260504200803 | 51 | 340 | 0.0 | 2.0 | 0.01 | 0.13 | 0.13 | 96 | 1017.1 |
| 20260504200724 | 51 | 340 | 0.0 | 2.0 | 0.01 | 0.13 | 0.13 | 96 | 1017.1 |
| 20260504200603 | 51 | 348 | 0.0 | 2.0 | 0.01 | 0.13 | 0.13 | 96 | 1017.2 |
| 20260504200503 | 51 | 358 | 0.0 | 2.0 | 0.01 | 0.13 | 0.13 | 95 | 1017.1 |
| 20260504200403 | 51 | 358 | 0.0 | 2.0 | 0.01 | 0.13 | 0.13 | 95 | 1017.1 |
| 20260504200303 | 51 | 4 | 0.0 | 2.0 | 0.01 | 0.13 | 0.13 | 95 | 1017.2 |
| 20260504200203 | 51 | 4 | 0.0 | 2.0 | 0.01 | 0.13 | 0.13 | 95 | 1017.0 |
| 20260504200003 | 51 | 14 | 1.0 | 2.0 | 0.01 | 0.13 | 0.13 | 95 | 1017.2 |
| 20260504195903 | 51 | 28 | 1.0 | 2.0 | 0.01 | 0.13 | 0.13 | 95 | 1017.0 |
| 20260504195803 | 51 | 33 | 1.0 | 2.0 | 0.01 | 0.13 | 0.13 | 95 | 1017.1 |
| 20260504195703 | 51 | 41 | 1.0 | 2.0 | 0.01 | 0.13 | 0.13 | 95 | 1017.1 |
| 20260504195624 | 51 | 40 | 1.0 | 2.0 | 0.01 | 0.13 | 0.13 | 95 | 1017.1 |
| 20260504195503 | 51 | 42 | 1.0 | 2.0 | 0.01 | 0.13 | 0.13 | 95 | 1017.0 |
| 20260504195403 | 51 | 38 | 1.0 | 2.0 | 0.01 | 0.13 | 0.13 | 95 | 1017.0 |
| 20260504195304 | 51 | 37 | 1.0 | 2.0 | 0.01 | 0.13 | 0.13 | 95 | 1017.1 |
| 20260504195203 | 51 | 37 | 1.0 | 2.0 | 0.02 | 0.13 | 0.13 | 95 | 1017.1 |
| 20260504195103 | 51 | 38 | 0.0 | 2.0 | 0.02 | 0.13 | 0.13 | 95 | 1017.1 |
| 20260504195003 | 51 | 38 | 0.0 | 2.0 | 0.02 | 0.13 | 0.13 | 95 | 1017.0 |
| 20260504194903 | 51 | 25 | 0.0 | 2.0 | 0.02 | 0.13 | 0.13 | 95 | 1017.1 |
| 20260504194824 | 51 | 25 | 0.0 | 2.0 | 0.03 | 0.13 | 0.13 | 95 | 1017.1 |
| 20260504194703 | 51 | 23 | 0.0 | 2.0 | 0.03 | 0.13 | 0.13 | 95 | 1017.0 |
| 20260504194603 | 51 | 38 | 0.0 | 1.0 | 0.03 | 0.13 | 0.13 | 95 | 1016.8 |
| 20260504194503 | 51 | 0 | 0.0 | 0.0 | 0.03 | 0.13 | 0.13 | 95 | 1017.0 |
| 20260504194424 | 51 | 0 | 0.0 | 0.0 | 0.03 | 0.13 | 0.13 | 95 | 1016.9 |
| 20260504194324 | 51 | 32 | 0.0 | 1.0 | 0.03 | 0.13 | 0.13 | 95 | 1016.8 |
| 20260504194224 | 51 | 40 | 0.0 | 1.0 | 0.03 | 0.13 | 0.13 | 95 | 1016.9 |
| 20260504194103 | 51 | 38 | 0.0 | 1.0 | 0.03 | 0.13 | 0.13 | 95 | 1016.8 |
| 20260504194003 | 51 | 38 | 0.0 | 1.0 | 0.02 | 0.12 | 0.12 | 95 | 1016.9 |
| 20260504193924 | 51 | 38 | 0.0 | 1.0 | 0.02 | 0.12 | 0.12 | 95 | 1016.9 |
| 20260504193803 | 51 | 46 | 0.0 | 2.0 | 0.02 | 0.12 | 0.12 | 94 | 1016.7 |
| 20260504193703 | 51 | 44 | 1.0 | 2.0 | 0.02 | 0.12 | 0.12 | 94 | 1016.8 |
| 20260504193624 | 51 | 44 | 1.0 | 2.0 | 0.02 | 0.12 | 0.12 | 94 | 1016.8 |
| 20260504193503 | 51 | 46 | 1.0 | 2.0 | 0.02 | 0.12 | 0.12 | 94 | 1016.8 |
| 20260504193403 | 51 | 45 | 1.0 | 2.0 | 0.02 | 0.12 | 0.12 | 94 | 1016.8 |
| 20260504193303 | 51 | 43 | 1.0 | 2.0 | 0.02 | 0.12 | 0.12 | 94 | 1016.9 |
| 20260504193203 | 51 | 44 | 1.0 | 2.0 | 0.02 | 0.12 | 0.12 | 94 | 1016.7 |
| 20260504193124 | 51 | 40 | 1.0 | 2.0 | 0.02 | 0.12 | 0.12 | 94 | 1016.8 |
| 20260504193003 | 51 | 38 | 1.0 | 2.0 | 0.02 | 0.12 | 0.12 | 94 | 1016.6 |
| 20260504192903 | 51 | 38 | 1.0 | 2.0 | 0.02 | 0.12 | 0.12 | 94 | 1016.8 |
| 20260504192803 | 51 | 35 | 1.0 | 2.0 | 0.02 | 0.12 | 0.12 | 94 | 1016.6 |
| 20260504192703 | 51 | 28 | 1.0 | 2.0 | 0.02 | 0.12 | 0.12 | 94 | 1016.8 |
| 20260504192603 | 51 | 26 | 1.0 | 2.0 | 0.02 | 0.12 | 0.12 | 94 | 1016.6 |
| 20260504192524 | 51 | 26 | 1.0 | 2.0 | 0.02 | 0.12 | 0.12 | 94 | 1016.6 |
| 20260504192424 | 51 | 19 | 1.0 | 1.0 | 0.02 | 0.12 | 0.12 | 94 | 1016.8 |
| 20260504192324 | 51 | 16 | 1.0 | 1.0 | 0.02 | 0.12 | 0.12 | 94 | 1016.6 |
| 20260504192224 | 51 | 14 | 1.0 | 1.0 | 0.02 | 0.12 | 0.12 | 93 | 1016.5 |
| 20260504192103 | 51 | 11 | 0.0 | 1.0 | 0.02 | 0.12 | 0.12 | 93 | 1016.6 |
| 20260504192024 | 51 | 11 | 0.0 | 1.0 | 0.02 | 0.12 | 0.12 | 93 | 1016.6 |
| 20260504191903 | 51 | 11 | 0.0 | 1.0 | 0.02 | 0.12 | 0.12 | 93 | 1016.6 |
| 20260504191824 | 51 | 11 | 0.0 | 1.0 | 0.02 | 0.12 | 0.12 | 93 | 1016.4 |
| 20260504191703 | 52 | 9 | 0.0 | 1.0 | 0.02 | 0.12 | 0.12 | 93 | 1016.7 |
| 20260504191603 | 52 | 6 | 0.0 | 1.0 | 0.02 | 0.12 | 0.12 | 93 | 1016.6 |
| 20260504191503 | 52 | 5 | 0.0 | 1.0 | 0.02 | 0.12 | 0.12 | 93 | 1016.4 |
| 20260504191403 | 52 | 3 | 0.0 | 1.0 | 0.02 | 0.12 | 0.12 | 93 | 1016.7 |
| 20260504191303 | 52 | 356 | 1.0 | 2.0 | 0.02 | 0.12 | 0.12 | 93 | 1016.6 |
| 20260504191224 | 52 | 354 | 1.0 | 2.0 | 0.02 | 0.12 | 0.12 | 92 | 1016.7 |
| 20260504191103 | 52 | 353 | 1.0 | 2.0 | 0.02 | 0.12 | 0.12 | 92 | 1016.6 |
| 20260504191003 | 52 | 353 | 1.0 | 2.0 | 0.02 | 0.12 | 0.12 | 92 | 1016.4 |
| 20260504190903 | 52 | 360 | 1.0 | 2.0 | 0.02 | 0.12 | 0.12 | 92 | 1016.5 |
| 20260504190803 | 52 | 359 | 1.0 | 2.0 | 0.02 | 0.12 | 0.12 | 92 | 1016.6 |
| 20260504190703 | 53 | 356 | 1.0 | 3.0 | 0.02 | 0.12 | 0.12 | 92 | 1016.5 |
| 20260504190603 | 53 | 350 | 1.0 | 3.0 | 0.02 | 0.12 | 0.12 | 92 | 1016.4 |
| 20260504190503 | 53 | 349 | 1.0 | 3.0 | 0.02 | 0.12 | 0.12 | 92 | 1016.6 |
| 20260504190403 | 53 | 349 | 1.0 | 3.0 | 0.02 | 0.12 | 0.12 | 92 | 1016.6 |
| 20260504190303 | 53 | 349 | 2.0 | 3.0 | 0.02 | 0.12 | 0.12 | 92 | 1016.4 |
| 20260504190203 | 53 | 350 | 2.0 | 3.0 | 0.02 | 0.12 | 0.12 | 91 | 1016.5 |
| 20260504190003 | 53 | 329 | 2.0 | 6.0 | 0.02 | 0.12 | 0.12 | 91 | 1016.6 |
| 20260504185903 | 53 | 326 | 2.0 | 6.0 | 0.02 | 0.12 | 0.12 | 91 | 1016.4 |
| 20260504185803 | 53 | 319 | 2.0 | 6.0 | 0.02 | 0.12 | 0.12 | 90 | 1016.5 |
| 20260504185703 | 53 | 319 | 2.0 | 6.0 | 0.02 | 0.12 | 0.12 | 90 | 1016.7 |
| 20260504185224 | 54 | 324 | 2.0 | 6.0 | 0.01 | 0.11 | 0.11 | 88 | 1016.5 |
| 20260504185103 | 54 | 324 | 2.0 | 6.0 | 0.01 | 0.11 | 0.11 | 88 | 1016.5 |
| 20260504185025 | 54 | 324 | 2.0 | 6.0 | 0.01 | 0.11 | 0.11 | 88 | 1016.5 |
| 20260504184903 | 54 | 338 | 1.0 | 3.0 | 0.01 | 0.11 | 0.11 | 87 | 1016.7 |
| 20260504184824 | 54 | 333 | 2.0 | 3.0 | 0.00 | 0.10 | 0.10 | 87 | 1016.5 |
| 20260504184703 | 54 | 332 | 2.0 | 3.0 | 0.00 | 0.10 | 0.10 | 87 | 1016.5 |
| 20260504184624 | 54 | 332 | 2.0 | 3.0 | 0.00 | 0.10 | 0.10 | 86 | 1016.6 |
| 20260504184503 | 54 | 331 | 2.0 | 3.0 | 0.00 | 0.10 | 0.10 | 86 | 1016.5 |
| 20260504184403 | 54 | 330 | 2.0 | 3.0 | 0.00 | 0.10 | 0.10 | 86 | 1016.5 |
| 20260504184303 | 54 | 329 | 2.0 | 3.0 | 0.00 | 0.10 | 0.10 | 86 | 1016.5 |
| 20260504184203 | 54 | 329 | 2.0 | 3.0 | 0.00 | 0.10 | 0.10 | 85 | 1016.5 |
| 20260504184103 | 54 | 328 | 2.0 | 3.0 | 0.00 | 0.10 | 0.10 | 85 | 1016.5 |
| 20260504184003 | 54 | 328 | 2.0 | 3.0 | 0.00 | 0.10 | 0.10 | 85 | 1016.5 |
| 20260504183924 | 54 | 328 | 2.0 | 3.0 | 0.00 | 0.10 | 0.10 | 85 | 1016.5 |
| 20260504183803 | 54 | 328 | 2.0 | 3.0 | 0.00 | 0.10 | 0.10 | 85 | 1016.4 |
| 20260504183703 | 54 | 328 | 2.0 | 3.0 | 0.00 | 0.10 | 0.10 | 85 | 1016.2 |
| 20260504183624 | 54 | 328 | 2.0 | 3.0 | 0.00 | 0.10 | 0.10 | 85 | 1016.2 |
| 20260504183503 | 54 | 322 | 2.0 | 3.0 | 0.00 | 0.10 | 0.10 | 85 | 1016.3 |
| 20260504183403 | 54 | 317 | 2.0 | 4.0 | 0.00 | 0.10 | 0.10 | 84 | 1016.3 |
| 20260504183303 | 54 | 308 | 2.0 | 6.0 | 0.00 | 0.10 | 0.10 | 84 | 1016.3 |
| 20260504183203 | 54 | 306 | 2.0 | 6.0 | 0.00 | 0.10 | 0.10 | 84 | 1016.4 |
| 20260504183103 | 54 | 306 | 2.0 | 6.0 | 0.00 | 0.10 | 0.10 | 84 | 1016.3 |
| 20260504183003 | 54 | 308 | 2.0 | 6.0 | 0.00 | 0.10 | 0.10 | 83 | 1016.3 |
| 20260504182903 | 55 | 308 | 2.0 | 6.0 | 0.00 | 0.10 | 0.10 | 83 | 1016.3 |
| 20260504182803 | 55 | 305 | 2.0 | 6.0 | 0.00 | 0.10 | 0.10 | 83 | 1016.3 |
| 20260504182703 | 55 | 306 | 2.0 | 6.0 | 0.00 | 0.10 | 0.10 | 83 | 1016.3 |
| 20260504182603 | 55 | 306 | 2.0 | 6.0 | 0.00 | 0.10 | 0.10 | 83 | 1016.3 |
| 20260504182503 | 55 | 310 | 2.0 | 6.0 | 0.00 | 0.10 | 0.10 | 83 | 1016.2 |
| 20260504182403 | 55 | 310 | 2.0 | 6.0 | 0.00 | 0.10 | 0.10 | 83 | 1016.2 |
| 20260504182304 | 55 | 314 | 2.0 | 6.0 | 0.00 | 0.10 | 0.10 | 83 | 1016.3 |
| 20260504182224 | 55 | 325 | 1.0 | 3.0 | 0.00 | 0.10 | 0.10 | 83 | 1016.4 |
| 20260504182103 | 55 | 329 | 1.0 | 3.0 | 0.00 | 0.10 | 0.10 | 82 | 1016.3 |
| 20260504182003 | 55 | 326 | 1.0 | 3.0 | 0.01 | 0.10 | 0.10 | 82 | 1016.3 |
| 20260504181903 | 55 | 325 | 1.0 | 3.0 | 0.01 | 0.10 | 0.10 | 82 | 1016.4 |
| 20260504181824 | 55 | 322 | 1.0 | 3.0 | 0.01 | 0.10 | 0.10 | 82 | 1016.3 |
| 20260504181703 | 55 | 322 | 1.0 | 3.0 | 0.01 | 0.10 | 0.10 | 82 | 1016.3 |
| 20260504181603 | 56 | 319 | 2.0 | 3.0 | 0.01 | 0.10 | 0.10 | 81 | 1016.4 |
| 20260504181524 | 56 | 319 | 2.0 | 3.0 | 0.01 | 0.10 | 0.10 | 81 | 1016.4 |
| 20260504181424 | 56 | 318 | 2.0 | 3.0 | 0.01 | 0.10 | 0.10 | 81 | 1016.3 |
| 20260504181324 | 56 | 314 | 2.0 | 6.0 | 0.01 | 0.10 | 0.10 | 80 | 1016.3 |
| 20260504181203 | 56 | 312 | 2.0 | 6.0 | 0.01 | 0.10 | 0.10 | 80 | 1016.2 |
| 20260504181103 | 57 | 311 | 2.0 | 6.0 | 0.01 | 0.10 | 0.10 | 80 | 1016.3 |
| 20260504181003 | 57 | 311 | 2.0 | 6.0 | 0.01 | 0.10 | 0.10 | 79 | 1016.2 |
| 20260504180903 | 57 | 313 | 2.0 | 6.0 | 0.01 | 0.10 | 0.10 | 78 | 1016.3 |
| 20260504180824 | 58 | 314 | 2.0 | 6.0 | 0.01 | 0.10 | 0.10 | 78 | 1016.3 |
| 20260504180703 | 58 | 317 | 2.0 | 6.0 | 0.01 | 0.10 | 0.10 | 77 | 1016.2 |
| 20260504180603 | 58 | 317 | 3.0 | 6.0 | 0.01 | 0.10 | 0.10 | 76 | 1016.4 |
| 20260504180525 | 59 | 317 | 3.0 | 6.0 | 0.01 | 0.10 | 0.10 | 76 | 1016.2 |
| 20260504180403 | 59 | 318 | 3.0 | 6.0 | 0.01 | 0.10 | 0.10 | 75 | 1016.3 |
| 20260504180324 | 59 | 318 | 3.0 | 6.0 | 0.01 | 0.10 | 0.10 | 75 | 1016.3 |
| 20260504180203 | 59 | 307 | 3.0 | 7.0 | 0.01 | 0.10 | 0.10 | 75 | 1016.3 |
| 20260504180103 | 59 | 309 | 3.0 | 7.0 | 0.01 | 0.10 | 0.10 | 76 | 1016.1 |
| 20260504180024 | 59 | 309 | 3.0 | 7.0 | 0.01 | 0.10 | 0.10 | 76 | 1016.1 |
| 20260504175903 | 58 | 310 | 3.0 | 7.0 | 0.01 | 0.10 | 0.10 | 77 | 1016.4 |
| 20260504175803 | 58 | 301 | 3.0 | 7.0 | 0.01 | 0.10 | 0.10 | 76 | 1016.2 |
| 20260504175703 | 58 | 300 | 3.0 | 7.0 | 0.01 | 0.10 | 0.10 | 76 | 1016.2 |
| 20260504175603 | 58 | 301 | 3.0 | 7.0 | 0.01 | 0.10 | 0.10 | 75 | 1016.3 |
| 20260504175503 | 58 | 299 | 3.0 | 7.0 | 0.01 | 0.10 | 0.10 | 75 | 1016.3 |
| 20260504175403 | 58 | 299 | 3.0 | 7.0 | 0.01 | 0.10 | 0.10 | 75 | 1016.3 |
| 20260504175304 | 58 | 300 | 3.0 | 7.0 | 0.01 | 0.10 | 0.10 | 74 | 1016.3 |
| 20260504175203 | 58 | 305 | 3.0 | 7.0 | 0.01 | 0.10 | 0.10 | 74 | 1016.4 |
| 20260504175103 | 58 | 313 | 3.0 | 6.0 | 0.01 | 0.10 | 0.10 | 74 | 1016.2 |
| 20260504175003 | 59 | 313 | 3.0 | 6.0 | 0.01 | 0.10 | 0.10 | 74 | 1016.3 |
| 20260504174903 | 59 | 311 | 2.0 | 6.0 | 0.01 | 0.10 | 0.10 | 74 | 1016.3 |
| 20260504174803 | 59 | 311 | 2.0 | 6.0 | 0.01 | 0.10 | 0.10 | 74 | 1016.3 |
| 20260504174703 | 59 | 321 | 2.0 | 6.0 | 0.01 | 0.10 | 0.10 | 74 | 1016.3 |
| 20260504174625 | 59 | 321 | 2.0 | 6.0 | 0.01 | 0.10 | 0.10 | 73 | 1016.4 |
| 20260504174503 | 59 | 319 | 2.0 | 4.0 | 0.01 | 0.10 | 0.10 | 75 | 1016.2 |
| 20260504174424 | 60 | 325 | 2.0 | 4.0 | 0.01 | 0.10 | 0.10 | 75 | 1016.3 |
| 20260504174303 | 60 | 331 | 2.0 | 4.0 | 0.01 | 0.10 | 0.10 | 76 | 1016.2 |
| 20260504174203 | 60 | 335 | 2.0 | 4.0 | 0.01 | 0.10 | 0.10 | 76 | 1016.2 |
| 20260504174103 | 60 | 337 | 2.0 | 4.0 | 0.01 | 0.10 | 0.10 | 78 | 1016.3 |
| 20260504174003 | 60 | 335 | 2.0 | 4.0 | 0.01 | 0.10 | 0.10 | 80 | 1016.2 |
| 20260504173903 | 59 | 337 | 2.0 | 4.0 | 0.01 | 0.10 | 0.10 | 80 | 1016.4 |
| 20260504173803 | 59 | 336 | 2.0 | 4.0 | 0.01 | 0.10 | 0.10 | 79 | 1016.3 |
| 20260504173724 | 59 | 336 | 2.0 | 4.0 | 0.01 | 0.10 | 0.10 | 79 | 1016.3 |
| 20260504173604 | 59 | 337 | 2.0 | 4.0 | 0.01 | 0.10 | 0.10 | 80 | 1016.3 |
| 20260504173503 | 59 | 341 | 2.0 | 4.0 | 0.01 | 0.10 | 0.10 | 81 | 1016.3 |
| 20260504173403 | 59 | 337 | 2.0 | 6.0 | 0.01 | 0.10 | 0.10 | 81 | 1016.4 |
| 20260504173303 | 58 | 337 | 2.0 | 6.0 | 0.01 | 0.10 | 0.10 | 81 | 1016.2 |
| 20260504173224 | 58 | 337 | 2.0 | 6.0 | 0.01 | 0.10 | 0.10 | 81 | 1016.4 |
| 20260504173124 | 58 | 335 | 2.0 | 6.0 | 0.01 | 0.10 | 0.10 | 82 | 1016.1 |
| 20260504173004 | 58 | 333 | 2.0 | 6.0 | 0.01 | 0.10 | 0.10 | 82 | 1016.4 |
| 20260504172903 | 58 | 324 | 3.0 | 6.0 | 0.01 | 0.10 | 0.10 | 82 | 1016.4 |
| 20260504172824 | 58 | 322 | 3.0 | 6.0 | 0.01 | 0.10 | 0.10 | 83 | 1016.3 |
| 20260504172703 | 58 | 324 | 3.0 | 6.0 | 0.01 | 0.10 | 0.10 | 84 | 1016.4 |
| 20260504172603 | 57 | 316 | 3.0 | 6.0 | 0.01 | 0.10 | 0.10 | 84 | 1016.4 |
| 20260504172503 | 57 | 311 | 3.0 | 6.0 | 0.01 | 0.10 | 0.10 | 84 | 1016.5 |
| 20260504172424 | 57 | 311 | 3.0 | 6.0 | 0.01 | 0.10 | 0.10 | 84 | 1016.5 |
| 20260504172304 | 57 | 312 | 2.0 | 6.0 | 0.01 | 0.10 | 0.10 | 84 | 1016.4 |
| 20260504172203 | 57 | 313 | 2.0 | 6.0 | 0.01 | 0.10 | 0.10 | 84 | 1016.5 |
| 20260504172103 | 57 | 315 | 3.0 | 6.0 | 0.01 | 0.10 | 0.10 | 83 | 1016.4 |
| 20260504172003 | 57 | 316 | 3.0 | 6.0 | 0.00 | 0.09 | 0.09 | 83 | 1016.4 |
| 20260504171903 | 57 | 318 | 3.0 | 6.0 | 0.00 | 0.09 | 0.09 | 82 | 1016.3 |
| 20260504171824 | 57 | 330 | 3.0 | 6.0 | 0.00 | 0.09 | 0.09 | 82 | 1016.3 |
| 20260504171703 | 57 | 332 | 3.0 | 6.0 | 0.00 | 0.09 | 0.09 | 81 | 1016.3 |
| 20260504171603 | 57 | 333 | 3.0 | 6.0 | 0.00 | 0.09 | 0.09 | 80 | 1016.3 |
| 20260504171503 | 58 | 341 | 2.0 | 6.0 | 0.00 | 0.09 | 0.09 | 80 | 1016.5 |
| 20260504171403 | 58 | 347 | 3.0 | 6.0 | 0.00 | 0.09 | 0.09 | 79 | 1016.2 |
| 20260504171303 | 58 | 349 | 3.0 | 6.0 | 0.00 | 0.09 | 0.09 | 78 | 1016.2 |
| 20260504171203 | 58 | 349 | 3.0 | 6.0 | 0.00 | 0.09 | 0.09 | 78 | 1016.2 |
| 20260504171103 | 59 | 348 | 3.0 | 6.0 | 0.00 | 0.09 | 0.09 | 77 | 1016.2 |
| 20260504171003 | 59 | 349 | 2.0 | 6.0 | 0.00 | 0.09 | 0.09 | 77 | 1016.3 |
| 20260504170903 | 59 | 344 | 2.0 | 6.0 | 0.00 | 0.09 | 0.09 | 77 | 1016.1 |
| 20260504170803 | 59 | 341 | 2.0 | 6.0 | 0.00 | 0.09 | 0.09 | 77 | 1016.3 |
| 20260504170703 | 59 | 330 | 2.0 | 4.0 | 0.00 | 0.09 | 0.09 | 78 | 1016.4 |
| 20260504170603 | 58 | 329 | 2.0 | 4.0 | 0.00 | 0.09 | 0.09 | 78 | 1016.2 |
| 20260504170503 | 58 | 326 | 2.0 | 4.0 | 0.00 | 0.09 | 0.09 | 78 | 1016.2 |
| 20260504170403 | 58 | 318 | 3.0 | 6.0 | 0.00 | 0.09 | 0.09 | 78 | 1016.0 |
| 20260504170303 | 58 | 307 | 3.0 | 6.0 | 0.00 | 0.09 | 0.09 | 78 | 1016.1 |
| 20260504170203 | 58 | 299 | 3.0 | 6.0 | 0.00 | 0.09 | 0.09 | 78 | 1016.4 |
| 20260504170124 | 58 | 299 | 3.0 | 6.0 | 0.00 | 0.09 | 0.09 | 78 | 1016.4 |
| 20260504160424 | 57 | 311 | 2.0 | 6.0 | 0.00 | 0.09 | 0.09 | 83 | 1016.1 |
| 20260504160303 | 57 | 317 | 2.0 | 6.0 | 0.00 | 0.09 | 0.09 | 83 | 1016.2 |
| 20260504160203 | 57 | 315 | 2.0 | 6.0 | 0.00 | 0.09 | 0.09 | 83 | 1016.3 |
| 20260504151103 | 55 | 104 | 3.0 | 6.0 | 0.00 | 0.09 | 0.09 | 92 | 1016.4 |
| 20260504151003 | 55 | 103 | 3.0 | 6.0 | 0.00 | 0.09 | 0.09 | 92 | 1016.4 |
| 20260504150903 | 55 | 100 | 2.0 | 6.0 | 0.00 | 0.09 | 0.09 | 92 | 1016.3 |
| 20260504150803 | 55 | 97 | 2.0 | 6.0 | 0.00 | 0.09 | 0.09 | 91 | 1016.5 |
| 20260504150703 | 55 | 90 | 2.0 | 6.0 | 0.00 | 0.09 | 0.09 | 91 | 1016.3 |
| 20260504150624 | 55 | 79 | 2.0 | 6.0 | 0.00 | 0.09 | 0.09 | 91 | 1016.4 |
| 20260504150503 | 55 | 73 | 2.0 | 4.0 | 0.00 | 0.09 | 0.09 | 91 | 1016.2 |
| 20260504150403 | 55 | 73 | 1.0 | 4.0 | 0.00 | 0.09 | 0.09 | 91 | 1016.4 |
| 20260504150303 | 55 | 73 | 1.0 | 4.0 | 0.00 | 0.09 | 0.09 | 91 | 1016.3 |
| 20260504150203 | 55 | 68 | 1.0 | 4.0 | 0.00 | 0.09 | 0.09 | 91 | 1016.3 |
| 20260504150103 | 55 | 69 | 1.0 | 4.0 | 0.00 | 0.09 | 0.09 | 91 | 1016.3 |
| 20260504141303 | 54 | 42 | 1.0 | 2.0 | 0.01 | 0.09 | 0.09 | 92 | 1016.5 |